ECMWFFLT1_925_temp_000.txt.gz
Temp
36 35 35 34 34 33 33 33 33 33 32 31 31 30 30 30 30 30 30 29 29 28 28 28 28 27 27 27 27 27 26 26 26 26 26 26 26 26 26 25 25 25 25 25 25 24 24 24 24 23 23 22 22 22 22 21 21 21 21 21 21 21 22
36 36 35 35 34 34 33 33 33 32 32 31 31 31 31 30 30 30 30 29 28 28 28 28 28 27 27 27 27 27 26 26 26 26 26 26 26 26 26 25 25 25 25 25 25 24 24 24 23 23 23 22 22 22 22 21 21 21 22 21 21 21 21
37 36 36 35 35 34 33 33 33 32 32 32 31 31 31 30 30 29 29 29 28 28 28 28 28 27 27 27 27 27 26 26 26 26 26 26 26 26 26 25 25 25 25 24 24 24 24 23 23 23 22 22 22 22 22 22 21 21 22 21 21 22 21
36 37 36 35 35 34 34 33 33 33 33 32 32 31 31 30 29 29 29 29 29 28 28 28 28 28 27 27 27 27 26 26 26 26 26 26 26 26 26 25 25 25 25 24 24 24 23 23 23 22 22 22 22 22 22 22 22 21 21 21 22 22 22
36 37 36 36 35 34 34 34 33 34 34 33 33 32 31 30 30 29 29 29 29 29 29 28 28 28 27 27 27 26 26 26 26 26 26 26 26 26 26 25 25 25 25 24 23 23 23 23 23 23 22 22 22 22 22 22 22 21 21 21 21 22 22
37 36 36 36 35 35 34 34 35 35 34 34 33 32 31 31 30 30 30 29 29 29 29 29 29 28 27 27 27 26 26 26 26 26 26 26 26 25 25 25 25 25 24 23 23 23 22 23 23 22 22 22 22 22 22 22 22 22 21 21 21 21 22
37 36 36 36 36 35 35 35 36 36 35 35 34 33 32 32 32 31 31 30 30 30 29 29 29 28 27 27 26 26 26 26 26 25 25 25 25 25 25 25 25 25 24 24 23 22 22 22 22 22 22 22 22 22 22 21 21 21 21 21 21 21 21
38 37 36 36 35 36 35 35 36 37 36 35 34 34 33 33 33 32 32 32 31 30 30 30 29 28 27 27 26 26 26 26 25 25 25 25 25 25 25 25 25 24 24 23 23 23 22 22 22 21 21 22 21 21 21 21 21 21 21 21 21 21 21
38 37 36 36 36 36 36 35 36 36 36 35 34 34 33 33 33 33 33 32 32 31 31 31 30 29 27 27 27 26 26 26 25 25 25 25 25 24 24 25 25 24 23 21 21 22 23 22 22 22 21 21 21 21 21 21 21 21 21 21 21 21 21
38 36 35 36 36 36 36 36 36 35 35 34 33 33 33 33 33 33 33 33 32 32 31 31 31 30 28 27 27 27 26 25 25 25 25 25 24 24 24 24 24 23 22 20 20 22 23 22 22 21 21 21 21 21 21 20 21 21 21 21 21 21 21
36 35 35 35 36 36 36 36 35 34 34 33 32 33 33 32 32 33 32 32 32 32 32 31 32 31 29 28 28 27 26 26 25 25 25 24 23 24 24 24 23 22 22 22 22 21 21 22 21 21 21 21 21 21 20 20 20 21 21 21 21 21 21
35 34 34 34 35 35 35 35 34 34 33 32 32 32 32 32 32 32 32 32 32 32 32 32 32 32 31 30 29 28 26 26 25 24 24 23 23 24 25 24 23 23 23 24 23 22 22 22 22 22 21 21 21 21 20 20 20 20 21 21 21 21 21
34 34 33 33 34 34 34 34 33 32 32 32 32 32 32 32 32 32 31 31 31 32 32 31 32 32 31 30 30 28 26 25 24 24 23 23 23 25 26 26 25 24 24 24 24 23 22 22 23 23 22 21 21 21 21 20 20 20 20 21 21 21 21
34 34 33 33 33 33 33 33 32 32 32 32 32 32 31 31 31 31 31 30 31 31 31 31 31 31 30 30 30 28 25 24 24 23 23 22 22 24 26 27 27 25 24 24 25 24 23 23 24 24 22 21 21 20 21 20 20 20 20 20 21 21 21
35 34 33 33 32 32 32 32 32 32 31 32 32 32 32 31 31 31 30 30 30 30 31 31 30 30 29 29 28 26 24 23 22 21 21 21 22 24 26 27 27 26 25 24 24 24 23 23 24 24 22 21 20 20 20 20 20 20 20 20 20 20 20
36 35 34 33 32 32 32 32 31 31 31 32 32 32 31 31 31 30 30 30 30 30 30 30 30 29 29 28 26 24 23 22 21 21 21 21 22 23 24 26 26 26 25 24 24 24 23 23 24 23 22 20 19 20 20 20 20 20 20 21 20 20 20
37 36 35 34 33 32 32 32 31 31 31 31 31 31 31 31 30 30 31 31 30 30 30 30 29 29 29 27 24 23 22 22 21 21 21 22 22 22 23 24 26 26 25 24 24 24 23 23 23 22 20 19 19 20 19 20 21 21 21 21 21 21 21
36 36 35 35 33 32 32 32 31 31 31 31 31 31 31 30 30 30 31 31 31 30 30 29 29 29 29 27 24 22 22 22 21 21 21 21 22 22 23 24 24 25 25 24 24 24 23 22 21 20 19 19 20 20 20 20 21 21 21 21 21 21 21
35 35 35 34 33 32 32 32 31 31 31 32 32 31 31 31 30 30 30 30 30 30 30 29 29 29 28 26 23 23 22 21 21 20 20 21 22 22 23 23 23 24 24 24 24 23 21 21 20 19 19 19 20 20 20 20 21 21 21 20 20 20 20
34 34 34 33 33 32 32 32 32 32 32 32 32 31 31 31 30 30 30 30 29 30 29 29 29 28 26 25 24 23 22 21 20 20 20 21 22 22 23 22 23 23 23 23 22 21 20 20 20 19 19 19 20 20 20 20 20 20 20 20 20 20 20
33 33 33 33 33 32 31 31 31 31 32 32 31 31 31 30 30 30 30 29 29 29 29 28 28 27 25 24 23 22 22 21 20 20 20 20 21 21 22 22 23 23 22 22 21 21 21 20 20 20 20 20 20 20 20 20 20 20 20 20 20 20 20
34 33 33 33 32 31 31 31 31 31 31 31 31 31 31 31 31 31 30 30 29 28 28 28 28 27 25 24 23 22 22 21 20 20 20 20 21 21 21 22 22 22 22 21 21 21 21 20 20 20 20 20 20 20 20 20 20 20 20 20 20 20 20
34 34 34 33 33 32 31 31 31 31 31 31 31 31 32 32 32 31 31 30 29 28 27 27 27 26 25 24 23 22 21 21 21 20 21 21 21 21 21 21 22 22 21 21 21 22 21 21 21 21 20 20 20 20 20 19 20 20 20 20 21 20 20
32 33 33 33 32 31 31 31 31 31 30 31 32 32 32 32 32 31 30 29 28 28 27 26 26 26 25 24 23 22 21 21 21 21 21 21 21 21 22 22 21 21 21 21 22 22 22 22 21 21 20 20 20 20 20 20 20 20 20 20 21 21 20
32 32 32 32 31 31 31 31 31 30 31 32 32 32 31 31 30 30 29 28 28 27 27 26 26 25 25 24 23 22 21 21 21 21 21 21 21 21 21 21 21 21 21 21 22 22 22 22 22 21 20 20 20 20 20 21 20 20 21 21 22 22 21
31 31 31 32 31 30 30 30 30 31 32 32 31 30 30 29 29 29 28 28 28 27 27 26 25 25 25 24 23 22 22 22 21 21 21 21 21 21 21 21 22 21 21 21 22 22 22 22 22 21 21 21 21 20 20 21 21 21 22 22 21 21 20
31 31 32 31 30 30 30 30 31 32 32 30 29 29 29 29 29 28 28 28 28 28 27 26 25 25 25 24 23 22 22 22 22 21 21 21 21 21 21 22 21 21 21 22 22 22 22 22 22 22 22 22 22 21 21 21 21 21 21 20 20 20 19
31 31 31 30 30 31 32 32 32 31 30 29 28 29 29 29 28 28 28 28 28 28 27 25 25 25 24 24 23 23 22 22 22 21 21 21 21 21 21 21 21 21 21 22 23 22 22 22 22 22 22 22 22 21 21 21 20 19 19 19 19 19 19
31 31 31 31 31 32 32 31 30 30 29 29 29 29 29 29 28 28 28 28 28 27 26 25 24 24 24 24 23 23 23 22 22 21 21 21 21 21 21 21 21 21 22 22 23 22 22 22 22 22 22 22 21 21 20 19 20 20 19 19 19 19 19
32 32 32 33 33 32 31 30 28 28 27 27 28 29 29 28 27 27 28 28 27 26 25 25 24 23 23 23 23 23 23 22 22 21 21 21 21 21 21 21 22 22 22 22 22 22 22 22 22 22 22 22 22 21 19 19 20 20 20 20 19 19 19
31 32 32 32 31 31 31 29 28 27 26 25 26 26 27 27 27 27 26 26 25 25 25 24 24 23 24 23 23 22 22 22 21 21 21 21 21 21 21 21 22 22 21 22 22 22 22 22 22 22 22 23 22 21 20 19 19 19 19 19 19 19 19
29 30 30 30 29 30 30 30 29 28 27 26 26 26 26 26 26 25 24 23 23 24 24 23 23 23 23 23 22 22 22 21 21 21 21 21 21 21 21 22 22 22 21 22 22 22 22 23 23 23 23 23 22 22 21 20 19 19 19 19 18 18 18
27 28 28 28 27 28 29 29 29 29 27 26 26 27 27 26 25 24 23 23 23 23 23 23 23 23 23 22 22 22 22 22 22 21 21 21 21 21 21 22 22 22 22 22 22 22 22 22 22 23 23 22 22 22 21 20 19 19 18 18 17 17 16
26 26 26 26 26 27 28 28 28 28 27 26 26 26 26 25 24 23 22 23 23 23 23 22 23 23 23 22 22 22 22 22 21 22 22 22 21 22 22 22 22 22 22 22 22 22 22 22 22 22 22 22 22 21 20 20 19 19 19 18 18 18 18
25 26 26 26 26 26 27 27 27 26 26 25 25 25 24 23 23 22 23 23 23 23 22 22 22 23 23 23 22 22 22 22 21 22 22 21 21 20 21 21 21 21 21 21 21 21 21 21 22 22 22 22 22 21 21 20 20 20 20 20 20 19 19
25 26 26 25 25 25 26 26 26 26 25 25 24 24 23 23 23 23 23 24 23 22 22 22 23 23 23 23 22 22 22 22 22 22 22 21 20 19 19 19 20 20 20 19 19 20 20 20 21 21 22 22 22 21 22 22 21 20 20 20 20 19 19
25 26 26 25 24 25 25 25 25 25 25 24 24 24 24 23 23 23 23 23 23 22 22 22 23 24 24 24 23 22 22 23 23 22 22 22 21 20 19 19 18 18 19 19 18 18 19 19 20 20 21 21 20 20 21 21 20 20 20 19 19 19 18
24 25 25 25 25 24 24 25 25 25 25 24 24 24 24 23 23 23 23 23 23 23 22 23 24 25 25 24 23 22 22 23 23 22 22 22 21 21 21 20 19 18 17 18 18 18 18 18 19 19 20 20 19 19 20 20 19 19 19 19 19 18 18

ECMWFFLT1_925_temp_003.txt.gz
Temp
37 37 37 36 35 35 35 35 34 34 34 33 32 32 31 31 31 31 31 30 29 29 28 28 28 28 28 28 27 27 27 27 27 27 27 27 27 27 27 27 26 26 26 26 25 25 25 25 25 25 25 24 24 23 23 23 22 22 22 22 22 22 22
39 38 38 37 36 35 35 35 35 34 34 33 32 32 32 31 31 31 31 30 30 29 29 28 28 28 28 28 28 28 27 27 27 27 27 27 27 27 27 27 26 26 26 26 25 25 25 25 25 25 24 24 24 23 23 22 22 22 22 22 22 22 22
39 38 38 37 36 36 36 35 35 35 34 33 33 32 32 32 31 31 31 30 30 29 29 29 28 28 28 28 28 28 28 28 27 27 27 27 27 27 27 26 26 26 26 25 25 25 25 25 25 24 24 24 23 23 23 23 22 22 22 22 22 22 22
40 39 38 38 37 36 36 36 35 35 35 34 33 33 32 32 31 31 31 31 30 29 29 29 29 29 28 28 28 28 28 28 27 27 27 27 27 27 27 26 26 26 26 26 25 25 25 25 24 24 24 23 23 23 23 23 23 22 22 22 22 22 23
40 40 39 38 37 37 36 36 35 36 35 35 34 33 32 32 31 31 31 31 31 30 30 29 29 29 29 29 29 28 28 28 28 28 27 27 27 27 27 26 26 26 26 25 25 24 24 24 24 24 23 23 23 23 23 23 23 22 22 22 22 22 22
40 40 39 38 37 37 36 36 36 36 36 35 35 33 33 32 32 32 31 31 31 31 30 30 30 30 29 29 29 29 28 28 28 28 27 27 27 27 27 26 26 26 26 25 24 24 24 24 24 23 23 23 23 23 23 23 23 22 22 22 22 22 22
41 40 38 37 37 37 37 36 37 37 36 36 35 34 33 33 33 33 32 32 31 31 30 30 30 30 30 29 29 29 28 28 28 28 28 27 27 27 27 26 26 25 25 24 24 24 24 24 24 23 23 23 23 23 23 23 22 22 22 22 22 22 22
42 39 37 37 36 37 38 37 37 37 36 36 36 34 34 34 34 33 33 32 32 32 31 31 31 30 30 29 29 29 29 28 28 28 28 27 27 27 26 26 26 25 24 24 24 25 25 24 24 23 23 23 22 22 23 22 22 22 22 22 22 22 22
42 39 38 38 36 36 38 38 37 38 36 36 36 35 35 35 34 34 34 33 33 33 32 32 31 31 30 29 29 29 29 28 28 28 28 27 27 27 26 25 25 25 25 26 26 25 25 24 24 23 23 23 22 22 22 22 22 22 22 22 22 22 22
40 39 39 39 37 36 38 38 38 37 36 36 36 35 35 35 35 35 34 34 34 34 33 33 32 31 30 30 29 29 28 28 28 28 28 28 27 26 26 25 25 25 26 26 27 26 25 24 24 23 23 23 22 22 22 22 21 21 21 21 21 22 22
39 39 39 39 37 37 39 39 37 37 36 35 35 36 35 35 35 35 35 35 35 34 34 34 33 32 31 30 29 29 28 28 28 28 28 28 28 27 25 24 25 26 26 27 27 26 25 24 24 23 23 23 22 21 21 21 21 21 21 21 21 21 22
40 39 39 38 38 38 38 38 37 36 36 35 35 36 35 35 35 35 35 35 35 35 35 34 33 33 32 31 30 29 28 28 28 28 28 28 28 27 25 24 25 26 26 27 28 26 25 25 24 23 23 22 22 22 21 21 21 21 21 21 21 21 21
40 39 38 38 38 37 38 37 37 36 36 35 36 36 35 35 35 35 35 35 36 36 35 34 33 33 32 31 30 29 28 28 28 28 28 28 28 26 25 25 25 26 27 27 27 26 25 25 24 24 23 23 23 22 21 21 21 20 21 21 21 21 21
39 38 37 37 37 37 37 37 36 36 35 36 36 36 36 35 35 35 35 35 35 36 36 34 33 33 32 31 30 29 28 29 28 28 28 27 27 25 25 25 26 27 28 28 27 26 26 26 25 24 23 23 22 22 21 21 21 20 21 21 21 21 21
39 37 36 36 36 36 36 36 36 36 35 36 36 36 36 35 35 35 35 35 35 36 36 35 34 33 32 31 30 29 28 28 28 27 27 26 26 25 25 26 27 27 28 28 27 27 27 27 26 24 23 22 22 21 21 21 21 21 21 21 21 21 21
40 39 37 37 36 36 36 36 36 35 35 35 35 35 35 35 35 35 35 35 35 35 36 35 34 33 32 31 30 29 28 28 27 26 25 25 25 25 25 26 27 27 28 28 27 26 26 26 25 24 22 22 21 21 21 21 21 21 21 21 21 21 21
41 41 40 40 38 36 35 35 35 35 34 34 34 34 34 34 34 35 35 35 34 34 35 34 33 32 31 31 30 29 27 26 25 25 25 24 25 25 25 26 26 27 28 27 26 25 25 24 24 24 23 22 21 21 21 21 21 21 21 21 21 21 21
41 40 41 40 38 36 35 35 35 34 34 34 34 34 34 34 34 34 34 35 34 34 35 34 33 32 31 30 29 27 25 25 24 24 24 24 25 25 25 26 26 26 26 25 24 24 24 24 24 23 23 22 22 22 22 22 21 21 21 21 21 21 21
40 40 40 39 37 37 36 35 35 34 34 34 35 34 34 34 34 34 34 34 34 34 34 34 33 32 29 28 27 26 25 25 25 24 24 24 25 25 25 25 25 25 25 24 24 24 23 23 23 23 22 22 22 22 22 22 22 21 21 21 21 21 21
40 40 40 38 37 38 36 35 35 35 34 35 35 35 34 34 33 33 34 34 33 33 33 33 32 31 28 26 26 26 25 25 25 25 24 24 24 24 24 24 25 24 24 24 24 23 23 23 22 22 22 22 22 22 22 22 22 21 21 21 21 21 21
40 40 39 37 37 37 36 35 35 35 35 35 35 35 34 34 33 33 33 34 33 33 32 32 31 29 27 26 26 25 25 25 25 24 24 24 24 24 24 24 24 24 24 24 24 23 23 23 22 22 22 22 22 22 22 23 22 22 21 21 21 21 20
40 39 38 38 37 36 36 35 36 35 35 35 35 35 34 34 33 34 34 34 33 32 31 31 31 30 27 26 26 25 25 25 25 24 24 24 24 24 24 24 23 23 23 24 24 24 23 23 23 22 22 22 22 22 22 22 22 22 21 21 21 21 20
40 39 39 38 37 37 36 35 36 35 34 35 35 35 34 34 34 34 34 33 32 31 31 31 31 30 27 26 26 25 25 25 24 24 24 24 24 24 24 24 23 23 23 24 24 24 24 24 23 23 22 22 21 22 22 22 22 21 21 21 21 20 20
39 39 39 38 37 37 35 35 35 35 34 34 35 34 34 34 34 33 33 32 31 31 30 30 30 29 28 27 26 26 25 25 24 24 24 24 24 24 24 24 24 24 24 24 24 25 25 24 24 23 22 22 22 22 22 22 22 21 21 21 21 20 20
38 39 38 38 37 36 35 34 34 34 34 34 34 34 34 33 33 33 32 31 31 30 30 30 29 28 28 27 26 25 25 24 24 24 23 24 24 24 24 24 24 24 24 24 24 25 25 24 24 23 23 23 23 22 22 22 21 20 20 20 20 21 20
37 37 37 38 38 36 34 34 34 34 34 34 34 34 33 33 33 32 31 31 30 30 30 29 28 28 27 26 26 25 25 24 24 24 23 23 23 24 24 24 24 24 24 24 24 24 24 24 23 23 23 23 22 22 21 21 21 20 20 20 20 20 20
36 36 37 37 37 35 33 33 33 33 34 34 33 33 33 33 32 31 30 30 30 30 30 29 27 27 26 26 26 25 25 25 25 24 23 23 23 24 24 25 25 24 24 24 25 24 24 23 23 23 24 23 22 22 21 21 21 20 20 20 20 20 20
35 36 36 36 35 34 33 33 33 34 34 34 33 33 32 32 31 30 30 30 30 30 29 28 27 26 26 25 25 25 25 25 24 24 23 23 23 24 25 25 24 24 24 24 25 24 24 23 24 24 24 23 23 23 22 22 21 21 21 20 21 21 20
35 35 34 33 33 33 33 33 33 33 33 33 32 32 31 30 30 30 30 30 30 29 28 27 27 26 25 25 25 25 25 25 24 23 23 23 23 24 24 24 24 23 23 24 24 24 23 23 24 24 24 23 23 23 22 21 21 21 21 21 21 20 20
33 33 33 33 33 33 33 33 33 32 32 32 33 32 31 30 30 30 30 30 29 28 27 27 26 25 25 25 24 25 25 24 23 23 23 23 23 23 23 23 23 23 23 24 24 23 23 23 23 23 24 24 23 23 23 21 20 20 21 20 20 19 19
33 33 34 33 33 32 32 31 31 31 31 31 31 31 31 30 30 30 29 29 28 27 27 26 25 25 24 24 24 24 24 23 23 23 23 23 23 23 23 23 23 23 23 23 24 23 23 23 23 23 24 24 24 24 23 21 20 19 19 19 19 19 18
33 34 34 33 32 31 31 31 30 30 30 30 30 30 30 30 29 29 28 27 27 26 26 25 25 25 24 24 23 23 23 23 23 23 23 23 23 22 22 23 23 23 23 24 24 23 23 23 23 23 24 24 24 24 23 22 21 19 18 18 18 18 18
30 31 32 32 31 31 31 31 31 31 31 30 30 30 29 28 27 27 26 26 25 25 25 24 24 24 24 24 24 23 23 23 23 23 23 23 23 23 23 23 24 23 23 24 24 24 23 23 24 24 24 24 24 24 24 22 21 20 19 18 18 18 18
28 29 30 30 30 30 30 30 30 30 29 29 29 29 28 27 26 25 25 25 25 24 24 24 24 24 24 24 24 24 23 23 23 23 23 23 24 24 24 24 24 24 24 24 24 24 24 24 24 24 24 25 24 24 24 22 22 21 21 20 19 18 18
28 28 29 29 29 29 29 29 29 28 28 27 27 27 27 26 26 26 26 26 25 25 25 24 24 24 24 24 24 23 23 23 23 23 23 24 24 23 23 23 23 24 23 23 23 23 23 24 24 24 24 24 24 24 23 22 22 22 21 21 20 19 18
28 28 28 28 28 28 28 27 27 27 27 26 26 26 26 26 26 27 27 27 26 25 25 25 25 25 24 24 24 23 23 23 23 23 24 24 23 22 21 21 22 22 22 22 22 22 22 22 22 22 23 23 23 23 23 22 22 22 21 20 20 19 19
27 28 28 28 27 27 27 27 26 26 26 26 26 26 26 27 27 27 26 26 25 25 25 25 25 25 25 24 24 23 23 24 24 24 24 24 23 22 21 21 21 21 21 21 21 21 21 21 21 21 21 21 21 22 22 22 22 22 21 20 20 19 19
26 27 28 28 27 27 26 26 26 26 26 26 25 26 26 26 26 26 25 24 24 24 24 24 25 25 25 24 24 23 23 24 24 23 24 23 23 23 22 22 21 20 19 20 20 20 20 20 20 20 20 20 21 21 21 20 20 20 20 20 19 19 19

ECMWFFLT1_925_temp_009.txt.gz
Temp
36 36 35 34 34 34 33 32 31 31 31 30 30 30 30 29 29 28 28 27 27 26 26 26 26 26 26 25 25 25 25 25 25 25 26 26 26 26 26 26 26 26 25 25 24 24 24 24 24 24 24 24 24 24 24 24 24 24 24 23 23 23 23
36 36 36 35 34 34 33 32 31 31 31 30 30 30 30 30 29 29 28 27 27 26 26 26 26 26 26 26 25 25 25 25 25 25 26 26 26 26 26 26 26 26 25 25 25 24 24 24 24 24 24 24 24 24 24 24 24 24 23 23 23 23 23
36 36 36 35 34 34 33 32 31 31 31 31 30 30 30 30 29 29 28 27 27 27 26 26 26 26 26 26 25 25 25 25 25 25 26 26 26 26 26 26 26 26 25 25 25 25 24 24 24 24 24 24 24 24 24 24 24 23 23 23 23 23 23
36 36 36 35 35 34 33 32 31 31 31 31 31 30 30 30 30 29 29 28 27 27 26 26 26 26 26 26 26 25 26 25 25 26 26 26 26 26 26 26 26 26 25 25 25 25 25 25 24 24 24 24 24 24 24 24 24 23 23 23 23 22 23
36 36 36 35 35 34 33 32 32 31 32 32 31 31 30 30 30 29 29 28 28 27 27 26 26 26 26 26 26 25 26 26 26 26 26 26 26 26 26 26 26 26 25 25 25 25 25 25 24 24 24 24 24 24 24 24 23 23 23 22 22 22 22
36 36 36 35 35 34 33 33 33 32 32 32 32 31 31 30 30 30 29 28 28 27 27 27 26 26 26 26 26 26 26 26 26 26 26 26 26 26 26 26 26 26 25 25 25 25 25 25 25 24 24 24 24 24 24 23 23 23 23 22 22 22 22
37 37 36 35 35 34 34 33 33 33 32 32 32 31 31 30 30 30 29 29 28 28 27 27 27 26 26 26 26 26 26 26 26 26 26 26 26 26 26 26 26 26 25 25 25 25 25 25 25 24 24 24 24 24 24 23 23 23 22 22 22 22 22
37 37 36 35 35 34 34 34 34 33 32 32 32 32 31 31 31 30 30 29 28 28 27 27 27 26 26 26 26 26 26 26 26 26 26 26 26 26 26 26 26 26 25 25 25 25 25 25 25 25 24 24 24 24 24 23 23 23 22 22 22 22 22
37 36 36 35 35 35 34 34 34 33 32 32 32 32 31 31 31 31 30 30 29 28 28 27 27 27 26 26 26 26 26 26 26 26 26 26 26 26 26 26 26 26 26 25 25 25 25 25 25 25 25 24 24 24 24 23 23 23 23 22 22 22 22
37 36 35 35 35 35 35 34 34 33 32 32 32 32 32 31 31 31 31 30 30 29 28 28 28 27 27 26 26 26 26 26 26 26 26 26 26 26 26 26 26 26 25 25 25 25 25 25 25 25 24 24 24 24 24 23 23 23 22 22 22 22 22
36 36 35 36 35 35 35 34 33 33 32 31 31 32 32 31 31 31 31 31 30 30 29 28 28 27 27 27 26 26 26 26 26 26 26 26 26 26 26 26 26 26 25 25 25 25 25 25 25 24 24 24 24 24 24 23 23 23 22 22 22 22 22
35 36 35 35 35 35 35 34 33 33 32 31 31 32 31 31 31 31 31 31 31 30 30 29 28 28 27 27 27 26 26 26 26 26 26 26 26 26 26 26 26 25 25 25 25 25 25 25 24 24 24 24 24 24 23 23 23 23 22 22 22 22 22
35 36 35 35 35 35 35 34 33 33 32 31 32 32 32 31 32 32 31 31 31 31 30 29 29 28 28 27 27 27 27 26 26 26 26 26 26 26 26 26 26 26 25 25 25 25 25 24 24 24 24 24 24 24 23 23 23 23 23 22 22 22 22
35 35 35 35 35 34 35 34 33 33 32 32 32 32 32 32 32 32 31 31 32 31 31 30 29 29 28 27 27 27 27 27 27 27 26 26 26 26 26 26 26 26 25 25 25 25 25 24 24 24 24 24 23 23 23 23 23 22 22 22 22 22 22
35 35 34 34 33 34 34 33 33 32 32 32 31 31 31 31 32 32 31 31 32 31 31 30 30 29 29 28 27 27 27 27 27 27 27 26 26 26 26 26 26 26 26 25 25 25 25 24 24 24 23 23 23 23 23 23 22 22 22 22 22 22 22
35 35 34 34 33 33 33 33 32 32 31 32 31 31 31 31 31 32 31 31 32 32 31 31 30 30 29 28 28 28 27 27 27 27 27 27 27 27 26 26 26 26 26 26 25 25 25 24 24 24 23 23 23 23 23 22 22 22 22 22 22 22 22
35 35 35 34 33 33 33 33 32 32 31 31 31 31 31 31 31 32 32 32 32 32 32 31 30 30 29 29 28 28 28 28 27 27 27 27 27 27 26 26 26 26 26 26 25 25 25 24 24 23 23 23 23 22 22 22 22 22 22 22 22 22 22
36 36 35 35 34 34 33 33 32 32 31 31 31 31 31 32 32 32 32 32 32 32 32 31 31 30 30 29 29 28 28 28 27 27 27 27 27 27 26 26 26 26 26 26 26 25 25 24 24 24 23 23 22 22 22 22 22 22 22 22 22 21 21
36 36 36 35 34 34 34 33 32 32 32 31 31 31 32 32 32 32 32 32 32 32 32 32 31 30 30 29 29 29 28 28 28 27 27 27 27 27 27 26 26 26 26 26 25 25 25 25 24 24 23 23 22 22 22 22 22 22 22 21 21 21 21
37 36 36 35 35 34 34 33 33 32 32 32 32 32 33 33 32 32 32 33 32 32 32 32 32 31 30 29 29 29 28 28 28 27 27 27 27 27 27 26 26 26 26 26 25 25 25 24 24 24 23 23 23 22 22 22 22 22 21 21 20 20 20
38 37 35 35 35 35 34 34 34 33 32 32 33 33 33 33 33 32 33 33 32 32 32 32 32 31 30 30 29 29 29 28 28 28 27 27 27 27 27 26 26 26 26 26 25 25 25 25 24 24 23 23 23 22 22 22 22 22 21 21 20 20 20
39 38 37 35 35 35 34 34 34 34 33 33 33 33 33 33 33 33 33 33 32 32 32 32 32 31 30 30 29 29 29 28 28 28 27 27 27 27 27 26 26 26 26 25 25 25 25 25 24 24 23 23 23 23 22 22 22 22 21 21 20 20 20
38 39 39 37 35 34 33 33 33 33 33 33 33 33 33 33 33 33 33 33 32 32 32 32 32 31 30 30 30 29 29 29 28 27 27 27 27 27 26 26 26 25 25 25 25 25 25 24 24 24 24 23 23 23 23 22 22 22 22 22 21 20 20
38 39 39 39 37 34 32 32 34 34 34 34 33 34 34 34 34 33 32 32 33 32 32 32 31 31 31 30 30 30 29 29 28 28 27 27 27 27 26 26 25 25 25 25 25 25 24 24 24 24 24 24 23 23 23 22 22 22 22 22 22 21 21
37 38 38 38 38 36 34 33 34 34 34 33 33 34 34 34 34 33 32 32 32 32 32 31 31 31 31 31 30 30 29 29 28 28 27 27 26 26 26 25 25 25 25 25 25 25 24 24 24 23 24 24 23 23 22 22 22 22 22 22 22 22 22
36 36 37 37 36 35 35 34 34 34 33 33 34 34 34 34 33 32 32 32 32 32 32 32 32 32 32 31 30 29 29 28 28 27 27 26 26 26 25 25 25 25 25 25 25 24 24 24 24 23 23 23 23 23 22 22 23 23 22 22 22 22 22
34 34 34 34 34 34 34 33 33 33 33 33 34 34 34 34 33 32 32 32 32 32 32 33 32 32 31 31 30 29 28 28 27 27 26 26 26 25 25 25 25 25 25 24 24 24 24 24 24 23 23 23 23 23 23 22 22 22 22 22 22 22 21
32 32 31 31 31 31 32 32 33 33 34 34 34 34 34 33 32 31 32 31 31 32 33 33 32 31 30 29 29 28 27 27 27 26 26 26 26 25 25 25 25 24 24 24 24 24 24 24 23 23 22 22 22 23 22 22 22 22 22 22 22 22 21
26 28 30 30 29 28 29 30 30 29 30 31 31 32 33 32 32 31 31 30 31 33 33 32 31 30 29 28 27 27 26 26 26 26 26 25 25 25 25 24 24 24 24 24 24 24 24 23 23 23 22 22 22 22 22 22 22 22 22 22 22 21 21
22 23 24 25 25 25 26 26 25 24 23 25 27 28 29 29 29 30 30 31 32 32 31 30 29 28 27 27 26 26 26 26 25 25 25 25 25 25 24 24 24 24 24 24 23 23 23 23 23 23 22 22 22 22 22 22 22 22 22 21 21 21 21
22 21 21 21 22 23 23 24 23 22 21 22 24 25 26 25 23 24 27 29 30 29 28 27 26 26 25 25 25 25 25 25 25 25 24 24 24 24 24 24 24 23 23 24 23 23 23 23 23 23 22 22 22 22 22 22 22 22 21 21 21 21 20
21 21 21 21 21 21 22 22 22 21 21 20 21 22 23 23 21 20 21 23 25 24 23 22 22 22 22 22 22 23 23 23 23 23 23 23 24 24 24 24 23 23 23 23 23 23 23 23 23 22 22 22 22 22 22 22 22 22 21 21 20 20 20
21 21 21 20 20 21 21 21 22 22 20 19 20 21 21 21 21 20 19 20 21 22 21 21 20 20 21 21 21 21 22 22 22 22 22 23 23 23 23 23 23 23 23 23 23 22 22 23 23 22 22 21 21 22 22 21 21 21 21 20 20 20 20
21 21 20 20 20 20 20 20 21 21 20 19 20 21 20 20 20 20 20 20 20 20 20 21 21 21 21 21 21 21 21 21 22 22 22 23 23 23 23 23 23 23 23 23 22 22 22 23 23 23 22 22 21 21 21 20 20 21 21 21 21 20 20
21 21 20 20 19 20 20 20 20 20 20 20 20 21 20 20 20 20 20 20 20 20 20 21 22 22 22 22 22 22 22 22 22 22 22 22 22 22 22 22 23 23 22 22 23 23 23 23 23 23 23 23 22 21 20 19 20 21 22 21 21 21 21
21 21 21 20 20 20 20 20 20 20 20 20 20 21 20 20 21 21 20 20 20 21 21 21 22 23 23 23 23 22 22 22 22 21 21 21 21 20 20 21 22 22 22 22 23 23 23 23 23 23 23 23 22 22 21 21 22 22 22 21 21 21 21
21 21 21 20 20 20 20 20 20 21 20 20 20 21 21 21 21 21 20 20 21 21 22 22 22 22 23 23 22 22 22 22 21 20 20 20 20 20 19 19 20 21 22 23 23 23 23 23 23 23 23 23 23 22 22 23 23 22 22 21 21 21 21
21 21 20 20 20 20 20 20 20 20 20 20 20 21 22 22 22 22 22 21 22 22 22 23 23 23 23 23 22 22 22 21 20 20 20 19 19 20 19 19 18 18 20 21 22 22 23 23 23 23 23 23 23 23 22 22 22 22 22 21 21 21 21

ECMWFFLT1_925_temp_012.txt.gz
Temp
33 33 32 32 31 31 30 30 30 29 29 29 28 28 28 28 27 27 26 26 25 25 25 25 25 25 25 25 25 24 24 24 24 24 25 25 25 25 25 25 25 25 25 25 24 24 24 24 24 23 23 23 23 23 23 24 24 23 23 23 23 23 23
33 33 33 32 32 31 30 30 30 30 30 29 29 29 28 28 27 27 26 26 26 25 25 25 25 25 25 25 24 24 24 24 24 24 24 24 25 25 25 25 25 25 25 25 25 25 24 24 24 23 23 23 23 23 23 24 24 23 23 23 23 23 23
33 33 33 32 32 32 31 30 30 30 30 29 29 29 28 28 28 27 27 26 26 25 25 25 25 25 25 25 24 24 24 24 24 24 24 24 24 25 25 25 25 25 25 25 25 25 24 24 24 23 23 23 23 23 23 24 24 23 23 23 23 23 23
34 33 33 33 32 32 31 31 30 30 30 30 29 29 29 28 28 28 27 26 26 26 25 25 25 25 25 25 25 24 24 24 24 24 24 24 24 25 25 25 25 25 25 25 25 25 25 24 24 23 23 23 23 23 23 24 24 23 23 23 23 23 23
34 34 33 33 33 32 32 31 30 30 30 30 30 29 29 29 28 28 27 27 26 26 26 25 25 25 25 25 25 24 24 24 24 24 24 24 24 25 25 25 25 25 25 25 25 25 25 24 24 23 23 23 23 23 24 24 24 24 23 23 23 23 23
34 34 33 33 33 32 32 32 31 31 31 30 30 29 29 29 28 28 27 27 27 26 26 26 25 25 25 25 25 25 25 24 24 24 24 24 24 24 24 25 25 25 25 25 25 25 25 24 24 23 23 23 23 24 24 24 24 24 23 23 23 23 22
34 34 34 33 33 33 32 32 31 31 31 31 30 30 29 29 28 28 27 27 27 26 26 26 25 25 25 25 25 25 25 24 24 24 24 24 24 24 24 24 25 25 25 25 25 25 25 24 24 24 23 23 23 24 24 24 24 23 23 23 23 23 22
35 35 35 34 34 33 33 32 32 31 31 31 30 30 29 29 29 28 28 27 27 26 26 26 25 25 25 25 25 25 25 25 24 24 24 24 24 24 24 24 25 25 25 25 25 25 24 24 24 24 23 23 23 23 24 24 24 23 23 23 23 22 22
35 35 35 35 34 34 33 33 32 31 31 30 30 30 29 29 29 29 28 28 27 27 26 26 26 25 25 25 25 25 25 25 24 24 24 24 24 24 24 24 24 25 25 25 25 24 24 24 24 24 23 23 23 23 24 24 24 23 23 23 23 23 22
35 35 35 35 35 34 34 33 32 31 30 30 30 29 29 29 29 29 29 28 27 27 27 26 26 26 25 25 25 25 25 25 25 24 24 24 24 24 24 24 24 25 25 25 24 24 24 24 24 24 23 23 23 23 23 24 24 23 23 23 23 23 22
35 35 35 35 35 34 34 33 32 31 30 30 29 29 29 29 29 29 29 28 28 27 27 27 26 26 26 25 25 25 25 25 25 24 24 24 24 24 24 24 24 25 25 24 24 24 24 24 24 24 23 23 23 23 23 23 24 23 23 23 23 23 22
35 35 35 34 35 34 34 33 32 31 30 29 29 29 29 29 29 29 29 29 28 28 27 27 27 26 26 25 25 25 25 25 25 25 25 24 24 24 24 24 24 24 24 24 24 24 24 24 24 24 24 24 23 23 23 23 23 23 23 23 23 22 22
35 35 34 34 34 34 33 32 31 31 30 29 29 30 29 29 29 29 29 29 29 28 28 27 27 27 26 26 25 25 25 25 25 25 25 25 25 25 25 25 24 24 24 24 24 24 24 24 24 24 24 24 23 23 23 23 23 23 23 23 23 22 22
34 34 34 34 34 33 33 32 31 31 30 30 29 30 30 30 30 30 29 29 29 29 28 28 27 27 26 26 26 25 25 25 25 25 25 25 25 25 25 25 25 25 24 24 24 24 24 24 24 23 23 23 23 23 23 23 22 23 23 23 23 23 22
35 34 34 34 34 33 32 31 31 31 30 30 30 29 30 30 29 30 30 29 29 29 29 28 27 27 27 26 26 26 26 25 25 25 25 25 25 25 25 25 25 25 24 24 24 24 24 24 23 23 23 23 23 23 22 22 22 22 23 23 23 23 22
35 34 34 34 33 33 32 32 31 31 30 30 30 29 29 29 29 30 30 30 30 29 29 28 28 27 27 26 26 26 26 26 25 25 25 25 25 25 25 25 25 25 24 24 24 24 24 23 23 23 23 23 23 22 22 22 22 22 23 23 23 23 22
33 34 34 33 33 32 32 32 31 30 30 30 30 29 29 29 30 30 30 30 30 30 29 29 28 28 27 27 26 26 26 26 26 25 25 25 25 25 25 25 25 24 24 24 24 24 24 23 23 23 23 23 23 22 22 22 22 22 23 23 23 23 22
32 33 33 32 32 32 32 31 30 30 30 30 30 29 30 30 30 30 30 30 30 30 30 29 28 28 27 27 27 26 26 26 26 25 25 25 25 25 25 25 25 24 24 24 24 24 24 23 23 23 23 23 23 22 22 22 22 22 22 23 23 22 22
33 33 33 33 33 32 32 31 31 30 30 30 30 30 30 30 30 30 30 30 30 30 30 29 29 28 28 27 27 27 26 26 26 26 25 25 25 25 25 25 25 24 24 24 24 24 24 23 23 23 23 23 23 22 22 22 22 22 22 23 22 22 22
33 33 33 33 32 32 32 32 31 31 30 30 30 31 31 31 30 30 31 30 30 30 30 30 29 29 28 28 27 27 27 26 26 26 26 25 25 25 25 25 25 24 24 24 24 24 24 23 23 23 23 23 23 23 22 22 22 22 22 22 22 21 21
32 33 33 32 32 32 32 32 32 31 30 30 31 31 31 31 31 31 31 30 30 30 30 30 29 29 28 28 27 27 27 26 26 26 26 26 25 25 25 25 25 25 25 25 24 24 24 24 24 23 23 23 23 23 22 22 22 22 22 22 22 21 21
34 33 33 32 32 33 33 33 32 31 30 30 31 31 31 31 31 31 31 31 30 30 30 30 29 29 29 28 28 27 27 27 26 26 26 26 25 25 25 25 25 25 25 25 24 24 24 24 24 24 23 23 23 23 22 22 22 22 22 22 21 21 20
34 35 35 34 32 32 32 32 32 31 31 31 31 31 31 31 31 31 31 31 30 30 30 30 29 29 29 28 28 28 27 27 27 26 26 26 26 25 25 25 25 25 25 25 24 24 24 24 24 24 23 23 23 22 22 22 22 22 21 21 21 21 20
31 32 34 34 34 33 32 31 32 32 32 31 31 31 31 32 31 31 30 30 30 30 30 29 29 29 29 29 28 28 28 27 27 27 26 26 26 25 25 25 25 25 25 25 24 24 24 24 24 23 23 23 23 23 22 22 22 22 21 21 21 21 20
28 29 30 30 31 32 31 31 32 32 31 31 30 31 31 31 31 31 30 30 30 30 29 29 30 30 29 29 29 28 28 28 27 27 27 26 26 26 25 25 25 25 25 25 24 24 24 24 24 23 23 23 23 23 22 22 22 21 21 21 21 21 20
25 26 26 26 26 27 29 31 31 31 30 30 31 31 31 31 31 30 30 30 30 30 30 30 30 30 30 30 29 29 28 28 28 27 27 26 26 26 26 26 25 25 25 24 24 24 24 24 23 23 23 23 23 22 22 22 22 21 21 21 21 21 21
23 23 24 24 24 24 26 28 30 30 30 31 31 31 31 31 30 30 30 30 30 30 30 30 30 31 31 30 30 29 28 28 28 28 27 27 26 26 26 26 25 25 24 24 24 24 24 23 23 23 23 22 22 22 22 22 22 22 21 21 21 21 21
22 23 22 22 22 23 23 24 26 26 27 29 30 30 31 31 30 30 30 29 29 30 31 31 31 31 31 30 30 29 29 28 28 28 27 27 26 26 26 26 25 25 24 24 24 24 23 23 23 23 22 22 22 22 22 22 22 22 22 22 22 21 21
21 22 22 21 21 21 22 22 22 21 23 27 29 29 30 30 29 29 29 28 28 30 30 30 30 30 30 30 30 29 29 28 28 28 27 27 26 26 26 25 25 24 24 24 23 23 22 22 22 22 22 22 22 22 22 22 22 23 22 22 22 22 21
20 20 20 20 20 20 20 21 21 20 22 26 28 28 29 28 26 24 24 25 28 30 30 30 31 31 30 30 29 29 28 28 27 27 27 26 26 26 25 24 24 23 23 23 22 21 21 21 21 21 21 21 21 21 22 22 23 23 23 22 22 22 21
20 19 20 20 19 20 20 20 20 20 20 22 25 27 29 28 26 22 20 23 26 29 30 30 30 30 29 29 28 28 27 27 26 26 26 26 25 25 24 23 22 22 22 22 21 21 21 20 20 20 21 21 20 21 22 22 22 22 22 22 22 22 21
19 19 19 19 19 19 19 19 19 20 20 20 20 22 25 28 28 25 23 24 26 26 27 29 28 28 27 27 27 26 26 25 25 25 25 24 24 23 23 22 22 22 22 21 20 20 21 20 20 20 21 20 20 21 22 22 22 22 22 22 22 21 20
19 19 19 19 19 19 19 19 19 20 20 20 19 20 21 23 26 26 26 27 27 25 25 25 25 25 26 25 25 25 25 24 23 23 23 22 22 22 22 22 23 22 21 20 20 20 20 19 19 20 20 20 20 21 21 21 21 21 22 21 21 21 19
20 19 19 19 19 19 19 19 20 20 20 19 19 20 20 21 22 23 24 25 25 24 23 23 22 23 23 23 23 23 23 23 22 21 21 21 22 22 22 23 22 21 20 20 20 20 19 19 20 20 20 20 20 20 20 20 21 21 21 21 21 20 19
19 19 19 19 19 19 19 19 19 20 20 19 19 19 20 20 21 21 22 22 22 23 22 21 21 21 21 21 21 21 21 21 21 21 20 20 21 22 21 21 21 20 20 21 21 20 20 20 21 21 21 21 20 20 19 19 20 21 21 21 21 20 20
19 19 19 19 19 19 19 20 20 20 19 19 19 19 19 19 19 20 21 21 21 22 21 21 21 21 21 21 21 20 20 20 19 19 18 18 18 18 18 18 19 20 20 20 21 21 22 22 22 22 22 21 21 22 21 21 21 22 22 21 21 21 21
19 19 19 19 19 19 19 19 20 20 20 20 20 19 19 19 19 20 20 20 21 21 21 21 21 20 21 21 21 21 20 18 17 17 17 17 17 17 16 17 18 19 21 21 22 22 22 23 23 23 22 22 22 22 22 23 23 22 22 21 21 21 21
18 19 19 18 19 19 19 19 19 19 19 19 19 20 20 19 19 19 20 20 21 21 21 21 21 20 20 20 20 20 19 18 18 18 17 17 18 18 18 18 17 17 19 21 22 22 22 22 22 22 22 23 23 23 23 23 23 22 22 22 21 21 21

ECMWFFLT1_925_temp_015.txt.gz
Temp
31 30 30 30 30 29 29 29 28 28 28 28 27 27 27 27 26 26 25 25 25 25 25 24 24 24 24 24 24 24 24 24 24 24 23 23 23 23 24 24 24 24 24 24 25 25 25 24 24 24 24 23 23 23 23 23 23 23 23 23 22 22 23
31 31 31 30 30 29 29 29 28 28 28 28 28 27 27 27 27 26 26 25 25 25 25 25 24 24 24 24 24 24 24 24 24 24 23 23 23 23 24 24 24 24 24 25 25 25 25 24 24 24 24 23 23 23 23 23 23 23 23 23 22 23 23
31 31 31 30 30 30 29 29 29 28 29 28 28 28 27 27 27 26 26 25 25 25 25 25 24 24 24 24 24 24 24 24 24 24 23 23 23 23 24 24 24 24 24 25 25 25 25 24 24 24 24 24 23 23 23 23 23 23 23 23 23 23 23
32 32 31 31 30 30 30 29 29 29 29 29 29 28 28 27 27 27 26 26 25 25 25 25 24 24 24 24 24 24 24 24 24 24 24 23 23 23 23 24 24 24 24 24 25 24 24 24 24 24 24 24 23 23 23 23 23 23 23 23 23 23 23
32 32 32 31 31 30 30 30 29 29 29 29 29 28 28 28 27 27 26 26 26 25 25 25 25 24 24 24 24 24 24 24 24 24 24 23 24 23 23 24 24 24 24 24 24 24 24 24 24 24 23 23 23 23 23 23 23 23 23 23 23 23 23
32 32 32 31 31 31 30 30 30 29 29 29 29 29 28 28 27 27 27 26 26 26 25 25 25 24 24 24 24 24 24 24 24 24 24 24 23 23 23 23 24 24 24 24 24 24 24 24 24 24 23 23 23 23 23 23 23 23 23 23 23 23 23
32 32 32 32 32 31 31 31 30 30 30 30 30 29 29 28 28 27 27 26 26 26 25 25 25 25 24 24 24 24 24 24 24 24 24 23 23 23 23 23 24 24 24 24 24 24 24 24 24 24 24 23 23 23 23 23 23 23 23 23 23 23 23
33 32 32 32 32 32 31 31 31 30 30 30 30 29 29 28 28 28 27 27 26 26 26 25 25 25 25 24 24 24 24 24 24 24 23 23 23 23 23 23 23 24 24 23 24 24 24 24 24 24 23 23 23 23 23 23 23 23 23 23 23 23 23
34 33 33 32 32 32 32 32 31 30 30 29 29 29 29 29 28 28 28 27 27 26 26 26 25 25 25 24 24 24 24 24 24 24 23 23 23 23 23 23 23 23 23 23 23 24 24 24 24 23 23 23 23 23 23 23 23 23 23 23 23 23 23
34 33 33 33 32 32 32 32 31 30 30 29 29 29 29 29 28 28 28 27 27 26 26 26 26 25 25 25 24 24 24 24 24 24 23 23 23 23 23 23 23 23 23 23 23 23 23 23 23 23 23 23 23 23 23 23 23 23 23 23 23 23 23
33 33 33 33 32 32 32 32 31 31 30 29 28 29 29 28 28 28 28 28 27 27 27 26 26 26 25 25 24 24 24 24 24 24 24 23 23 23 23 23 23 23 23 23 23 23 23 23 23 23 23 23 23 23 23 23 23 23 23 23 23 23 23
33 33 33 33 33 33 32 32 31 31 30 29 28 29 29 28 28 28 28 28 28 27 27 27 26 26 25 25 25 24 24 24 24 24 24 24 24 23 23 23 23 23 23 23 23 23 23 23 23 23 23 23 23 23 23 23 23 23 23 23 23 23 23
33 33 33 33 33 33 32 32 31 30 30 29 29 29 29 28 28 28 28 28 28 27 27 27 26 26 26 25 25 25 24 24 24 24 24 24 24 24 23 23 23 23 23 23 23 23 23 23 23 23 23 23 23 23 23 23 23 23 23 23 23 23 23
32 33 33 33 33 33 32 32 31 30 30 29 29 29 29 29 28 28 28 28 28 28 27 27 26 26 26 25 25 25 25 25 24 24 24 24 24 24 24 23 23 23 23 23 23 23 23 23 23 23 23 23 23 23 23 23 23 23 22 22 22 22 22
32 33 33 33 33 33 32 32 31 30 30 29 29 28 28 28 28 28 28 28 28 28 27 27 27 26 26 25 25 25 25 25 24 24 24 24 24 24 24 23 23 23 23 23 23 23 23 23 23 23 23 23 23 23 22 22 22 22 22 22 22 22 22
33 33 33 33 33 32 32 31 31 30 30 30 29 28 28 28 28 28 28 28 28 28 28 27 27 26 26 26 25 25 25 25 25 24 24 24 24 24 24 24 23 23 23 23 23 23 23 23 23 23 23 23 22 22 22 22 22 22 22 22 22 22 22
33 33 32 32 32 32 32 31 31 30 29 29 29 28 28 28 28 28 28 28 28 28 28 27 27 26 26 26 26 25 25 25 25 24 24 24 24 24 24 23 23 23 23 23 23 23 23 23 23 23 23 22 22 22 22 22 22 22 22 22 22 22 22
32 32 32 32 32 32 31 31 31 30 29 29 29 28 28 29 28 28 28 28 28 28 28 27 27 26 26 26 26 25 25 25 25 24 24 24 24 24 24 23 23 23 23 23 23 23 23 23 23 23 23 22 22 22 22 22 22 22 22 22 22 22 22
30 31 31 32 32 32 31 31 31 30 30 29 29 28 29 29 28 28 29 29 29 28 28 28 27 27 26 26 26 26 25 25 25 25 24 24 24 24 24 24 23 23 23 23 23 23 23 23 23 23 23 22 22 22 22 22 22 22 22 22 22 22 21
29 29 30 30 31 31 31 31 30 30 29 29 29 29 29 29 29 29 29 29 29 28 28 28 27 27 27 26 26 26 25 25 25 25 24 24 24 24 24 24 24 24 23 23 23 23 23 23 23 23 23 22 22 22 22 22 22 22 22 22 22 21 20
31 31 30 30 30 30 30 30 30 30 29 29 29 30 29 29 29 29 29 29 29 28 28 28 28 27 27 27 26 26 25 25 25 25 25 24 24 24 24 24 24 24 23 23 23 23 23 23 23 23 23 23 22 22 22 22 22 22 22 22 21 21 20
30 30 31 31 31 30 29 29 29 29 29 29 29 29 29 30 30 29 29 29 29 28 28 28 28 27 27 27 26 26 26 25 25 25 25 24 24 24 24 24 24 24 23 23 23 23 23 23 23 23 23 22 22 22 22 22 22 22 22 22 21 20 19
26 26 27 29 30 30 29 28 29 29 29 29 29 29 30 30 30 29 29 29 29 28 28 28 28 28 27 27 27 26 26 26 25 25 25 24 24 24 24 24 24 24 23 23 23 23 23 23 23 23 23 23 22 22 22 22 22 22 22 22 21 20 19
23 23 23 24 26 27 27 28 30 30 29 29 29 29 30 30 30 29 29 29 28 28 28 28 28 28 27 27 27 27 26 26 26 25 25 24 24 24 24 24 24 24 24 23 23 23 23 23 23 23 23 23 22 23 23 22 22 22 22 22 20 19 19
21 22 21 22 23 23 23 26 29 30 30 29 28 29 30 30 30 29 28 28 28 28 28 28 28 28 28 28 28 27 27 26 26 26 25 25 25 24 24 24 24 24 24 23 23 23 23 23 23 23 23 23 23 23 23 22 22 22 22 21 20 19 19
20 20 21 21 21 21 21 23 28 30 29 28 29 29 29 29 29 29 28 28 28 28 28 28 28 28 28 28 28 27 27 26 26 26 26 25 25 25 25 24 24 24 24 24 24 23 23 23 23 23 22 22 23 23 22 22 22 22 22 21 21 19 18
19 19 20 20 20 21 20 22 25 27 28 29 30 30 30 29 28 28 28 28 28 28 28 29 29 29 29 28 28 28 27 27 26 26 26 26 25 25 25 25 24 24 24 24 24 23 23 23 23 22 22 22 22 22 22 22 22 22 22 21 21 19 18
19 20 20 20 20 20 20 20 22 23 25 27 29 30 30 30 28 28 27 27 27 28 29 29 29 29 29 28 28 28 27 27 26 26 26 26 25 25 25 25 24 24 24 24 24 23 23 22 22 22 22 22 22 22 22 22 22 22 22 22 21 20 18
19 19 20 20 20 19 19 20 20 20 22 24 27 29 30 29 28 27 27 27 28 29 29 29 29 29 28 28 28 28 28 27 27 26 26 26 26 25 25 24 24 24 24 24 24 23 22 22 22 22 21 21 22 22 21 21 21 21 22 21 21 20 19
19 19 19 19 19 19 18 19 19 20 20 22 24 26 28 29 28 27 26 27 29 29 29 29 29 29 29 28 28 28 28 27 27 26 26 26 26 25 25 24 24 24 24 24 23 23 22 21 21 21 21 21 21 21 20 20 20 21 21 21 21 21 20
19 18 19 19 18 18 18 19 19 20 20 21 23 23 24 26 26 26 26 28 29 29 29 29 29 29 29 29 28 28 28 27 27 26 26 26 25 25 25 24 24 24 23 23 23 22 21 20 21 21 21 21 20 19 19 19 20 21 21 21 20 20 20
19 18 19 19 19 18 18 19 19 19 19 20 22 23 23 24 24 24 25 27 28 29 29 29 29 29 29 29 29 28 28 27 27 26 26 26 26 25 25 25 24 23 22 22 22 21 20 20 20 21 21 20 19 18 18 19 21 22 21 21 21 20 20
19 19 19 19 19 19 19 19 19 19 19 19 20 20 22 23 23 23 24 24 26 27 29 30 29 29 29 28 28 28 28 27 27 27 26 26 25 25 25 24 24 22 22 21 21 20 20 20 20 21 20 19 18 18 19 20 21 21 20 21 21 20 20
18 19 19 19 19 19 19 19 19 19 19 19 19 19 19 20 21 22 23 23 23 24 26 28 29 28 28 28 28 28 28 28 27 27 26 25 25 25 24 23 23 22 22 22 21 21 20 20 20 20 19 18 18 18 18 18 18 19 20 21 22 21 19
18 18 18 18 19 19 19 19 19 19 19 19 19 19 19 19 19 20 20 21 22 22 23 24 26 26 26 26 26 26 26 25 25 24 24 24 24 24 23 23 23 22 22 22 22 22 21 20 19 19 19 18 18 18 18 17 17 19 21 22 22 21 20
18 18 18 18 18 19 19 19 19 19 19 19 19 19 19 19 19 19 19 20 20 21 21 22 23 23 24 24 23 23 23 23 22 22 22 22 22 21 21 21 21 21 21 21 21 22 22 22 21 20 19 19 19 20 21 20 19 21 22 22 21 21 21
18 18 18 18 18 18 19 19 19 19 19 19 20 20 20 19 19 19 19 19 20 20 20 20 21 21 21 21 21 21 21 21 21 21 21 21 20 19 18 18 19 20 20 20 21 22 23 23 22 20 19 19 20 21 22 22 22 22 22 21 21 21 20
17 18 18 18 18 18 18 18 18 18 18 19 20 20 20 20 20 20 20 20 20 20 20 20 20 20 20 20 20 20 20 20 20 19 19 18 18 18 18 17 16 16 16 18 19 20 21 21 20 20 19 20 21 21 20 21 22 22 21 21 21 20 20

ECMWFFLT1_925_temp_021.txt.gz
Temp
31 30 30 29 29 29 28 28 28 28 27 27 26 26 26 26 25 25 25 24 24 24 23 23 23 22 22 22 22 22 22 22 22 22 23 23 23 23 23 23 23 23 23 23 24 24 25 24 24 24 24 24 24 24 24 24 24 24 24 23 23 23 22
31 31 30 30 29 29 29 28 28 28 28 27 27 26 26 26 25 25 25 24 24 24 24 23 23 23 23 23 23 22 22 22 22 23 23 23 23 23 23 23 23 23 24 24 24 24 24 24 24 24 24 24 24 24 24 24 24 24 24 23 23 23 22
32 31 31 30 30 30 29 29 29 29 28 28 28 27 27 26 26 25 25 25 24 24 24 23 23 23 23 23 23 22 22 22 22 23 23 23 23 23 23 23 23 24 24 24 24 24 24 24 24 24 24 24 24 24 24 24 24 24 24 23 23 23 23
32 32 31 31 30 30 29 29 29 29 29 29 28 28 27 26 26 26 25 25 25 24 24 24 23 23 23 23 23 23 23 22 22 23 23 23 23 23 23 23 23 23 23 24 24 24 24 24 24 24 24 24 24 24 24 24 24 24 24 23 23 23 23
32 32 31 31 30 30 30 29 30 30 30 29 29 28 27 27 26 26 26 26 25 25 25 24 24 24 23 23 23 23 23 23 23 23 23 23 23 23 23 23 23 23 23 24 24 24 24 24 24 24 24 24 24 24 24 24 24 24 24 23 23 23 23
33 31 31 31 31 31 30 30 30 30 30 30 29 28 28 28 27 27 26 26 26 26 25 24 24 24 23 23 23 23 23 23 23 23 23 23 23 23 23 23 23 23 23 23 24 24 24 24 24 23 23 23 23 23 24 24 24 24 24 23 23 23 23
33 32 31 31 31 31 31 31 31 31 30 30 30 29 29 29 28 28 27 27 26 26 25 25 25 24 24 24 23 23 23 23 23 23 23 23 23 23 23 23 23 23 23 23 24 24 24 24 24 24 24 23 23 23 24 24 25 25 24 23 23 23 23
34 33 32 32 32 32 32 31 31 32 31 30 30 30 29 29 29 28 28 28 27 27 26 26 25 24 24 24 23 23 23 23 23 23 23 23 23 23 23 23 23 23 23 23 24 24 24 24 24 24 24 23 23 23 24 24 25 25 24 24 23 23 23
34 33 32 32 32 32 32 31 31 32 31 30 30 30 30 30 29 29 29 28 28 27 27 27 26 25 24 24 24 23 23 24 23 23 23 23 23 23 23 23 23 23 23 23 23 23 24 24 24 24 24 23 23 23 23 24 24 24 24 24 24 23 23
33 32 32 32 32 32 32 32 31 31 30 30 30 30 30 30 29 29 29 29 28 28 28 27 27 26 25 24 24 24 24 24 24 23 23 23 24 24 24 24 23 23 23 23 23 23 23 24 24 24 24 23 23 23 23 24 24 24 24 24 24 23 23
31 31 31 31 31 31 32 31 31 30 30 29 29 30 30 29 29 29 29 29 29 29 28 28 27 26 25 25 25 24 24 24 24 24 24 24 24 24 24 24 24 23 23 23 23 23 23 23 23 23 23 23 23 23 23 23 24 24 24 24 24 24 23
30 30 30 31 31 31 31 31 30 30 29 29 29 30 29 29 29 29 29 29 29 29 29 28 28 27 26 26 26 25 24 24 24 24 24 24 24 24 24 24 24 24 23 23 23 23 23 23 23 23 23 23 23 23 23 23 24 24 24 24 24 24 23
29 29 29 30 30 30 30 30 30 30 29 29 30 30 29 29 30 30 29 29 29 29 29 28 28 27 27 26 26 25 25 25 24 24 24 24 24 24 24 24 24 24 24 23 23 23 23 23 23 23 23 23 23 23 23 23 23 24 24 24 24 24 23
29 29 30 30 29 29 29 29 29 29 29 29 30 30 30 30 30 29 29 29 29 29 29 28 28 27 27 26 26 26 25 25 25 24 24 24 24 24 24 24 24 24 24 23 23 23 23 23 23 23 23 23 23 23 23 23 23 23 23 23 23 24 23
31 31 31 31 30 29 29 29 29 29 29 29 30 30 30 30 30 29 29 29 29 29 29 28 27 27 27 26 26 26 25 25 25 24 24 24 24 24 24 24 24 24 24 23 23 23 23 23 23 23 23 22 22 22 22 22 23 23 23 23 23 23 23
32 32 32 31 31 29 29 29 29 29 29 29 29 30 30 30 29 29 29 29 29 29 29 28 27 27 27 27 26 25 25 25 25 24 24 24 24 23 23 23 23 23 23 23 23 23 23 23 23 23 23 22 22 22 22 22 22 23 23 23 24 24 23
34 34 32 32 31 30 29 29 28 28 29 29 29 29 30 30 29 30 30 30 29 29 29 28 28 27 27 27 26 25 25 25 25 24 24 24 24 23 23 23 23 23 23 23 23 23 23 23 23 23 23 22 22 22 22 22 22 23 23 23 23 24 24
35 35 34 32 30 29 28 29 28 28 28 29 29 29 29 29 29 30 30 30 30 29 29 29 28 28 27 27 26 26 26 25 25 24 24 24 24 24 23 23 23 23 23 23 23 23 23 23 23 23 23 23 23 23 22 22 22 22 22 23 23 23 23
34 34 34 31 28 28 28 29 29 29 29 30 30 30 30 30 30 30 30 30 30 30 29 29 29 28 27 27 26 26 26 25 25 25 24 24 24 24 23 23 23 23 23 23 23 23 23 23 22 23 23 23 23 23 23 23 22 22 22 22 23 23 22
32 31 30 29 28 28 28 28 29 29 29 30 30 30 30 30 30 29 29 29 29 29 29 29 29 28 27 27 26 26 26 25 25 25 24 24 24 24 23 23 23 23 23 23 23 23 23 23 23 23 23 23 23 23 23 23 22 22 22 22 22 23 22
30 28 27 27 27 27 26 26 27 28 29 30 30 30 30 30 30 30 30 29 29 29 29 28 28 28 27 27 26 26 26 25 25 25 24 24 24 24 24 23 23 23 23 23 23 23 23 23 23 23 23 23 23 23 23 23 22 22 22 22 22 22 22
28 27 26 26 25 25 24 25 25 26 28 29 30 30 30 30 30 30 30 30 29 29 28 28 28 28 27 27 26 26 26 25 25 25 24 24 24 24 24 24 23 23 23 24 24 24 24 23 23 23 23 23 23 23 23 23 22 22 22 22 22 22 21
26 25 25 25 24 24 24 24 24 25 26 27 29 30 30 30 30 30 30 30 30 29 28 28 28 27 27 27 26 26 26 25 25 25 25 24 24 24 24 24 24 23 23 23 24 24 24 24 24 24 23 23 23 23 23 23 23 22 22 22 22 21 21
24 24 24 23 23 24 24 24 24 24 25 27 29 30 30 30 30 30 30 30 29 29 28 28 28 27 27 27 27 26 26 25 25 25 25 25 24 24 24 24 24 24 23 24 24 24 24 24 24 24 24 24 23 23 23 23 23 22 22 22 21 21 21
23 23 23 23 23 24 24 23 24 25 26 28 29 29 29 29 30 29 29 29 29 29 28 28 28 28 27 27 27 26 26 26 25 25 25 25 25 25 24 24 24 24 24 24 24 24 25 25 25 24 24 24 24 23 23 23 23 22 21 22 21 21 21
22 22 23 24 23 23 23 23 24 26 27 26 26 27 28 28 29 29 28 28 29 29 29 28 28 28 27 27 27 26 26 26 25 25 25 25 25 25 25 24 24 24 24 24 24 24 25 25 25 25 24 24 24 24 23 23 23 22 21 21 21 21 21
22 21 22 22 22 23 23 23 23 24 24 23 24 26 27 28 28 28 28 28 28 29 29 28 28 28 27 27 27 27 26 26 25 25 25 25 25 25 25 25 25 24 24 24 25 25 25 25 25 25 25 25 25 24 23 23 23 23 22 21 21 21 21
21 21 21 21 22 23 23 23 22 22 22 22 23 25 26 27 27 27 28 28 28 28 28 28 28 28 27 27 27 27 26 26 26 25 25 25 25 25 25 25 25 24 24 25 25 25 25 25 25 25 25 25 25 25 24 23 23 23 22 21 21 21 21
20 20 21 21 22 22 23 22 21 21 21 21 22 23 25 27 27 27 27 26 25 26 27 27 27 27 27 27 27 26 26 26 26 25 25 25 25 25 25 25 25 24 24 24 25 25 25 24 24 24 25 25 24 24 24 23 23 22 22 21 21 21 21
20 20 20 21 21 22 22 21 21 20 20 20 20 21 23 24 24 24 24 23 22 24 26 26 27 27 27 27 26 26 26 26 26 26 25 25 25 25 25 25 25 24 24 24 24 25 25 24 24 24 24 25 24 24 24 23 23 22 21 21 21 21 21
20 20 21 21 21 21 21 21 21 20 20 20 20 20 20 21 22 21 21 20 21 23 24 25 26 26 26 26 26 26 26 26 26 26 25 25 25 25 25 25 25 24 24 24 24 24 25 25 25 25 24 24 24 24 23 23 22 22 21 21 21 21 21
20 20 20 21 21 21 21 21 21 21 21 20 20 20 20 20 20 20 20 20 21 22 23 24 24 25 25 25 25 25 26 26 26 26 25 25 25 25 25 25 25 25 24 24 24 24 25 25 25 25 24 24 24 24 23 22 22 22 21 21 21 21 21
19 20 20 21 21 21 21 21 21 21 21 21 20 20 20 20 20 20 20 20 21 22 22 23 23 24 24 24 24 24 24 25 25 25 25 25 25 25 25 25 25 25 25 24 25 25 25 25 25 25 25 25 24 24 23 22 21 21 20 20 21 21 21
19 19 20 21 21 21 21 21 21 21 21 21 20 20 20 20 20 21 21 21 21 22 22 22 22 23 23 23 23 24 24 24 24 24 25 25 25 25 25 25 25 25 25 25 25 25 25 25 25 25 25 25 24 23 23 22 21 20 20 20 19 19 19
19 19 20 20 21 21 21 20 20 20 20 20 20 20 20 21 21 21 21 21 21 22 21 21 22 22 22 22 23 23 23 23 24 24 24 24 25 25 25 25 25 25 25 25 25 25 25 25 25 25 25 25 24 23 22 21 20 20 20 19 19 19 19
19 19 19 20 21 21 20 20 20 20 20 20 20 20 20 20 21 21 21 21 21 21 21 21 22 22 22 22 22 22 22 22 23 23 23 23 24 24 24 24 24 25 25 25 24 24 25 25 25 25 25 25 24 23 23 22 21 20 19 19 19 20 21
19 19 19 20 20 20 20 20 20 20 20 20 20 20 20 20 20 21 21 21 21 21 21 21 21 21 21 21 21 21 21 21 21 21 21 22 22 23 23 23 24 24 23 24 24 24 23 23 23 23 24 24 24 23 23 23 22 20 19 19 19 20 21
18 19 19 19 19 19 20 20 20 21 21 21 20 20 20 19 20 20 21 21 21 21 21 21 21 21 21 21 20 20 20 20 20 20 20 20 21 21 22 22 22 23 23 23 23 23 23 23 22 22 22 23 23 23 23 22 21 20 20 19 19 20 20

ECMWFFLT1_925_temp_024.txt.gz
Temp
36 35 35 34 33 33 32 32 31 31 31 30 29 29 29 29 28 28 27 27 26 26 25 25 25 25 25 25 25 25 25 24 24 24 25 25 25 25 25 25 25 25 26 26 26 26 26 25 25 25 25 24 24 24 24 24 24 24 24 24 24 24 24
37 36 36 35 34 33 33 32 32 32 31 30 30 29 29 29 28 28 28 27 26 26 25 25 25 25 25 25 25 25 25 25 25 25 25 25 25 25 25 25 25 25 25 26 26 26 26 25 25 25 25 24 25 25 24 24 24 24 24 24 24 24 23
38 37 36 35 34 33 33 32 32 32 31 31 30 30 29 29 28 28 28 27 27 26 26 25 25 25 25 25 25 25 25 25 25 25 25 25 25 25 25 25 25 25 25 25 26 26 26 25 25 25 25 25 25 25 25 24 24 24 24 24 24 24 24
38 38 37 36 35 34 33 33 32 32 32 32 31 30 30 29 28 28 28 28 27 26 26 26 25 25 25 25 25 25 25 25 25 25 25 25 25 25 25 25 25 25 25 25 25 26 26 25 25 25 25 25 25 25 25 25 24 24 24 24 24 24 24
37 37 37 36 35 34 34 33 33 33 33 32 32 31 30 29 29 28 28 28 28 27 27 26 26 26 25 25 25 25 25 25 25 25 25 25 25 25 25 25 25 25 26 25 25 25 25 25 25 25 25 25 25 25 25 24 24 24 24 24 24 24 24
38 37 37 37 36 35 34 34 34 34 33 33 33 31 31 30 29 29 29 28 28 28 27 27 27 26 26 26 26 25 25 25 25 25 25 25 25 25 25 25 25 26 26 26 25 25 25 25 25 25 25 25 25 25 25 25 25 25 24 24 24 24 25
39 38 37 37 36 36 35 34 35 35 34 34 34 32 32 31 31 30 30 29 29 28 28 28 27 27 26 26 26 26 25 25 25 25 25 25 25 25 25 25 25 26 26 26 25 25 25 25 25 25 25 25 25 25 25 25 25 25 24 24 24 24 24
40 38 37 37 37 37 36 35 35 36 35 34 34 34 33 32 32 31 31 30 30 29 29 29 28 27 27 26 26 26 26 26 25 25 25 25 25 25 25 25 25 25 26 26 26 25 25 25 25 25 25 25 25 25 25 25 24 25 25 24 24 24 24
40 38 37 37 37 37 37 36 36 36 35 34 34 34 33 33 33 32 32 31 31 30 30 30 29 28 27 26 26 26 26 26 26 26 25 25 26 26 26 26 25 25 25 26 26 26 25 25 25 25 25 25 25 25 25 25 24 24 25 24 24 24 24
39 37 36 37 37 37 37 36 36 35 34 34 34 34 34 33 33 33 32 32 32 31 31 31 30 29 28 27 27 26 26 26 26 26 26 26 26 26 27 26 26 26 25 26 26 26 25 25 25 25 25 25 25 25 25 25 24 24 25 24 24 24 24
37 35 35 36 36 36 36 36 35 34 34 34 33 33 34 33 33 33 33 33 33 32 32 31 31 30 29 28 27 27 27 26 27 27 27 27 27 27 27 27 27 26 26 26 26 26 26 25 25 25 25 25 25 25 25 25 24 24 25 25 24 24 24
35 34 34 34 35 35 35 35 35 34 33 33 33 33 33 33 33 33 33 33 33 33 32 31 31 31 29 29 28 28 27 27 27 27 27 27 27 28 28 28 28 27 27 26 26 26 26 26 25 25 25 25 25 25 25 25 24 24 25 25 25 24 25
35 35 34 34 34 34 34 34 34 33 32 33 33 33 33 33 33 33 33 33 33 33 33 32 31 31 30 29 29 28 28 28 27 27 27 27 27 28 28 28 28 28 27 27 27 27 27 26 25 25 25 25 25 25 25 25 24 24 24 25 25 25 25
36 36 35 34 34 33 33 33 33 33 32 33 34 33 33 33 33 33 33 33 33 33 33 32 31 31 30 30 29 29 28 28 28 27 27 27 27 27 28 28 28 28 28 27 27 27 27 27 26 25 25 25 25 25 25 25 25 24 24 24 25 25 25
37 39 38 36 34 33 33 32 32 32 32 33 34 33 33 33 33 33 33 32 33 33 33 32 31 31 30 30 29 29 28 28 28 27 27 27 27 27 27 27 27 27 28 27 27 27 27 27 26 25 25 25 25 25 25 25 25 25 24 24 24 25 25
38 39 39 39 36 34 33 33 32 32 32 32 33 33 33 33 33 33 33 33 32 32 33 32 31 31 30 30 29 29 28 28 27 27 27 27 27 26 26 27 27 27 27 27 27 26 26 27 26 26 26 25 25 25 25 25 25 25 25 24 24 25 25
38 38 38 39 38 36 34 33 33 32 32 32 32 33 33 33 33 33 33 33 33 32 33 32 31 31 30 30 30 29 28 28 27 27 27 26 26 26 26 26 26 26 26 26 26 26 26 26 26 26 26 26 25 25 25 25 25 25 25 24 24 24 25
37 38 38 38 38 36 35 34 33 32 32 33 33 33 33 33 33 33 33 33 33 33 32 32 32 31 30 30 29 29 28 27 27 27 26 26 26 26 26 26 26 26 26 26 26 26 26 26 26 26 26 26 26 26 26 26 25 25 25 24 24 24 24
37 37 38 38 37 36 35 35 35 34 33 34 34 34 33 33 33 33 33 33 33 33 33 32 32 31 30 30 29 28 28 27 27 27 26 26 26 26 26 26 26 26 26 26 26 26 26 26 26 26 26 26 26 26 26 26 26 25 25 24 24 24 24
36 36 37 37 37 37 36 35 34 34 34 34 35 35 34 34 33 33 33 33 33 33 32 32 32 31 30 29 29 28 28 27 27 27 27 26 26 26 26 26 26 26 26 26 26 26 26 26 26 26 26 26 26 26 26 26 26 25 25 24 24 23 23
35 36 36 36 36 36 35 33 32 33 34 34 34 35 34 34 34 33 33 33 33 33 32 32 32 31 30 29 29 28 28 27 27 27 27 26 26 26 26 26 26 26 26 26 26 26 26 26 26 26 26 26 26 26 26 26 26 25 25 24 24 23 23
36 36 35 35 34 33 32 31 31 32 32 33 33 34 34 34 34 34 34 33 33 32 32 31 31 31 30 29 29 28 28 28 27 27 27 27 26 26 26 26 26 26 26 26 26 26 26 26 26 26 26 26 26 26 26 27 26 25 25 25 24 24 23
35 34 33 32 32 31 30 29 30 30 30 31 32 33 34 34 34 34 34 34 33 32 32 31 31 31 30 29 29 29 28 28 28 27 27 27 27 26 26 26 26 26 26 26 26 27 27 27 27 27 27 26 26 26 26 27 26 26 25 25 24 24 23
33 32 31 30 30 30 30 29 29 29 29 30 31 32 33 34 34 34 33 34 33 32 31 31 31 30 30 30 29 29 29 28 28 28 27 27 27 27 27 26 26 26 26 26 26 27 27 27 27 27 27 27 27 26 26 27 27 26 25 25 25 24 23
30 30 30 30 29 29 29 28 28 28 29 30 31 32 32 33 33 33 33 33 33 32 32 31 31 31 30 30 30 29 29 28 28 28 27 27 27 27 27 27 27 27 26 26 27 27 27 28 27 27 27 27 27 27 26 27 27 26 26 25 25 24 23
28 28 28 29 29 28 28 27 27 29 31 31 30 31 31 32 32 32 32 32 33 33 32 31 31 31 31 30 30 29 29 28 28 28 28 27 27 27 27 27 27 27 27 27 27 27 27 28 28 28 28 28 28 27 27 27 27 27 26 25 25 24 23
27 27 27 28 27 26 27 28 28 29 30 29 28 29 30 31 32 32 31 31 32 32 32 32 31 31 30 30 30 30 29 28 28 28 28 27 27 27 27 27 27 27 27 27 28 28 27 27 28 28 28 28 28 28 28 27 27 27 26 26 25 24 23
26 27 27 26 26 26 27 28 27 27 28 28 28 29 30 30 31 31 31 31 31 32 32 32 31 30 30 30 30 30 29 29 28 28 28 27 27 27 27 28 27 27 27 28 28 28 27 27 27 28 28 28 28 28 28 28 27 26 26 25 25 24 23
25 26 26 26 26 26 27 27 26 26 27 27 28 29 30 30 30 30 30 30 30 30 31 31 31 30 29 29 29 30 29 29 28 28 27 27 27 27 27 27 27 27 27 27 27 27 27 27 27 28 28 28 28 28 28 28 27 26 26 25 25 24 24
25 25 26 26 25 25 25 25 25 25 26 26 26 27 29 30 29 29 29 28 27 28 29 29 29 29 29 29 29 29 29 29 28 28 27 27 27 27 27 27 27 27 27 27 27 27 27 27 27 27 28 28 28 28 28 27 27 26 26 25 25 24 23
24 24 25 25 24 24 24 25 25 25 25 25 24 25 26 27 27 27 26 25 25 27 28 28 28 29 29 29 29 29 29 29 28 28 28 28 27 27 27 27 27 27 27 27 27 27 27 27 27 27 27 27 28 28 28 27 27 26 26 25 25 24 23
24 24 25 25 24 24 25 25 24 24 24 24 24 24 24 25 25 25 25 24 25 26 26 27 28 28 28 28 28 28 28 28 28 28 28 27 27 27 27 27 27 27 27 27 27 27 27 27 27 28 27 27 27 27 27 27 27 26 25 25 24 24 24
23 23 24 24 24 24 24 25 24 24 24 23 24 24 24 24 24 24 24 25 25 25 26 27 27 27 28 28 28 28 28 28 28 28 28 28 27 28 27 27 27 27 27 27 28 28 27 27 27 27 27 27 27 27 27 27 27 26 25 24 24 23 23
22 23 24 24 24 23 24 24 24 24 24 23 23 24 24 24 24 24 24 25 25 25 26 26 26 27 27 27 27 27 28 28 27 27 28 28 28 28 28 28 28 28 27 27 27 28 28 28 27 27 28 27 27 27 27 27 27 27 25 24 23 23 22
22 23 23 23 23 23 23 23 23 23 23 23 23 23 23 23 24 24 24 25 25 25 25 26 26 26 26 27 27 27 27 27 27 27 28 28 28 28 28 28 28 28 28 28 28 28 28 28 28 28 28 28 28 28 28 28 28 27 26 24 24 23 23
22 23 23 23 23 23 22 22 22 23 23 23 23 23 23 24 24 24 24 24 25 25 25 26 26 26 27 27 27 27 27 28 28 27 27 28 28 28 27 27 27 27 28 28 28 27 27 27 27 28 28 28 28 28 28 28 27 27 26 25 24 24 23
21 22 22 23 23 23 23 23 23 23 23 22 22 23 23 24 24 25 25 24 24 25 25 25 26 26 26 26 25 25 25 26 26 26 26 27 27 27 27 27 27 26 26 26 26 26 26 26 26 26 26 26 26 26 26 27 27 27 26 25 24 24 23
20 20 21 22 22 23 23 23 23 23 23 23 22 23 23 23 24 24 24 24 24 24 24 25 25 26 26 25 24 23 24 25 24 24 25 25 25 25 26 26 27 26 26 25 25 24 24 24 24 24 24 24 24 24 24 25 25 26 26 25 24 24 23

ECMWFFLT1_925_temp_027.txt.gz
Temp
38 39 38 37 36 36 35 35 34 34 34 32 32 32 32 31 31 30 29 28 27 27 26 26 26 26 26 26 26 26 26 26 26 26 26 27 27 27 27 27 27 27 27 28 27 27 27 27 28 27 27 26 26 26 26 25 25 25 25 25 25 25 25
38 39 39 38 37 36 36 35 34 34 34 33 32 32 32 32 31 30 29 28 27 27 27 26 26 26 26 26 26 26 26 26 26 26 26 27 26 27 27 27 27 27 27 28 28 28 27 27 27 27 27 26 26 26 26 25 25 25 25 25 25 25 25
38 39 40 38 37 37 36 35 34 34 34 33 33 32 32 32 31 30 30 29 28 27 27 26 26 26 26 26 26 26 26 26 26 26 26 27 27 27 27 27 27 27 27 27 28 28 28 27 27 27 27 27 26 26 26 26 25 25 25 25 25 25 25
39 39 40 39 37 37 36 35 35 35 34 34 33 32 32 31 31 31 30 29 28 28 27 27 27 27 27 27 26 26 26 26 26 26 27 27 27 27 27 27 27 27 27 27 27 28 28 28 27 27 27 27 26 26 26 26 26 25 25 25 25 25 25
39 40 40 39 38 37 37 36 35 35 35 34 34 33 32 32 31 31 30 30 29 28 28 28 28 28 27 27 27 27 26 26 26 27 27 27 27 27 27 27 27 27 27 27 27 27 28 28 27 27 27 26 26 26 26 26 26 26 25 25 25 25 25
41 40 40 40 39 38 37 36 36 36 35 35 34 33 33 32 32 31 31 30 30 29 29 28 28 28 27 27 27 27 27 27 26 27 27 27 27 27 27 27 27 27 27 28 27 27 27 27 27 27 27 27 27 27 27 26 26 26 25 25 25 25 26
41 40 40 40 40 38 37 37 37 37 36 36 35 34 33 33 32 32 32 31 31 30 30 29 29 28 28 28 28 28 27 27 27 27 27 27 27 27 27 27 27 27 28 28 27 27 27 27 27 27 27 27 27 27 27 27 26 26 26 25 25 25 25
41 40 40 40 40 39 38 37 37 37 37 36 36 35 34 34 33 33 33 32 32 31 31 30 30 29 28 28 28 28 28 28 27 27 27 27 27 27 27 27 27 27 28 28 28 28 27 27 27 27 27 27 27 27 27 27 26 26 26 26 25 25 25
41 40 40 40 40 40 39 38 38 38 37 36 36 36 34 34 34 33 33 33 32 32 32 31 31 30 29 28 28 28 28 28 28 27 27 27 28 28 28 27 27 27 27 28 28 28 27 27 27 27 27 27 27 27 27 27 26 26 26 26 26 25 26
41 41 40 41 41 41 39 38 38 38 37 36 36 36 35 35 34 34 34 34 33 33 33 32 32 31 30 29 29 29 28 28 28 28 28 28 28 28 28 28 28 28 27 28 28 28 28 27 27 27 27 27 27 27 27 27 26 26 26 26 26 26 26
40 39 39 39 40 40 40 39 38 37 36 36 35 36 36 35 35 35 34 34 34 34 34 33 33 32 31 30 29 29 29 29 29 29 29 29 29 29 29 29 29 28 28 28 28 29 28 27 27 27 27 26 27 27 26 27 26 26 26 26 26 26 26
38 38 38 38 39 39 39 39 37 36 36 36 36 36 36 35 35 35 35 35 35 35 34 34 33 33 32 31 30 30 29 29 29 29 29 29 29 30 30 30 30 29 29 28 28 29 29 28 27 27 27 26 26 27 26 26 26 26 26 27 27 26 26
38 37 37 37 38 38 38 38 37 36 35 36 36 36 36 36 35 35 35 35 35 35 35 34 34 33 32 32 31 31 30 30 30 30 30 29 29 30 30 30 31 30 30 29 29 29 29 29 28 27 27 26 26 26 26 26 26 26 26 27 27 27 26
39 38 37 37 37 37 36 36 36 36 35 36 36 36 36 36 36 35 35 35 35 35 35 35 34 34 33 32 31 31 30 30 30 29 30 30 29 30 30 30 31 31 31 30 29 29 29 29 28 27 27 27 26 26 26 26 26 26 26 26 27 27 26
39 40 39 37 36 36 36 35 35 35 35 35 36 36 36 36 36 36 35 35 35 35 36 35 34 34 33 32 32 31 30 30 30 29 29 30 29 29 30 30 30 30 30 30 29 29 29 29 29 28 27 27 27 27 27 26 26 26 26 26 26 27 27
39 40 40 39 37 36 36 35 35 34 34 35 35 36 36 36 36 35 35 35 35 35 36 35 34 34 33 33 32 31 30 30 30 29 29 29 29 29 29 30 30 30 30 30 29 29 29 29 29 29 28 27 27 27 27 27 27 27 26 26 26 26 27
38 39 40 39 39 37 36 35 35 34 34 34 34 35 36 35 35 35 35 36 35 35 35 35 35 34 33 33 32 31 30 30 30 29 29 29 29 29 28 29 29 29 29 30 29 29 29 29 29 29 29 28 27 27 27 27 27 27 26 26 26 26 27
38 38 38 39 39 38 37 36 35 35 35 35 35 35 35 35 35 35 35 36 35 35 35 35 35 34 33 33 32 31 30 30 29 29 29 28 28 28 28 28 29 29 29 29 29 29 29 28 28 29 29 28 28 28 27 27 27 27 26 26 26 26 26
37 38 38 38 38 39 39 38 37 36 36 37 37 36 36 36 35 35 35 36 35 35 35 35 35 34 33 32 32 31 30 29 29 29 28 28 28 28 28 28 28 28 28 28 29 28 28 28 28 28 28 28 28 28 28 28 27 27 27 26 26 26 26
37 37 38 38 38 38 38 38 38 37 37 38 38 38 37 37 36 35 35 35 35 35 35 35 35 34 33 32 32 31 30 29 29 29 28 28 28 28 28 28 28 28 28 28 28 28 28 28 28 28 28 28 28 28 28 28 28 27 27 26 26 26 26
37 37 38 38 38 37 36 36 36 36 37 37 37 38 38 37 37 36 35 35 35 35 35 34 34 34 33 32 31 31 30 29 29 29 28 28 28 28 28 28 28 28 28 28 28 28 28 28 28 28 27 28 28 28 28 28 28 28 27 26 26 26 26
38 38 38 38 37 35 35 34 34 35 35 35 35 37 37 38 38 37 36 36 35 35 34 34 34 34 33 32 31 31 30 29 29 29 29 28 28 28 28 28 27 27 28 28 28 28 28 28 28 28 27 27 28 28 28 28 28 28 27 27 26 26 26
38 38 37 37 36 35 34 33 33 34 33 33 34 36 37 37 38 38 37 36 36 35 34 34 33 33 33 32 31 31 30 30 29 29 29 28 28 28 28 28 28 27 28 28 28 29 28 28 28 28 28 28 28 28 28 28 28 28 28 27 26 26 25
36 36 35 34 34 34 34 33 32 32 32 33 34 34 35 36 37 37 37 36 36 35 34 34 33 33 33 32 32 31 30 30 29 29 29 29 28 28 28 28 28 28 28 28 28 29 29 29 29 29 29 28 28 28 28 28 28 28 28 28 27 26 25
33 33 33 33 33 33 32 31 30 30 32 33 33 34 34 34 35 36 36 36 36 35 35 34 34 33 33 33 32 31 30 30 29 29 29 29 28 28 28 28 28 28 28 28 28 29 29 29 29 29 29 29 29 28 28 28 28 28 28 28 27 26 25
31 31 32 33 33 31 30 30 30 31 33 33 32 32 33 33 34 35 35 35 35 36 35 34 34 33 33 32 32 31 30 30 30 29 29 29 29 29 29 29 29 29 28 28 29 29 29 29 29 29 29 29 29 29 28 28 28 28 28 28 27 26 26
30 30 31 32 31 29 30 31 31 31 32 31 30 31 32 32 33 34 34 34 34 35 35 34 33 33 32 32 32 32 31 30 30 29 29 29 29 29 29 29 29 29 29 29 29 29 29 29 29 30 30 30 30 29 29 29 29 28 28 28 27 27 26
29 30 30 30 30 29 29 30 30 30 30 30 30 31 32 32 32 33 33 33 33 34 35 34 33 33 32 32 32 32 31 31 30 30 29 29 29 29 29 29 29 29 29 29 29 29 29 29 29 30 30 30 30 30 30 29 29 29 28 28 28 27 26
28 28 29 30 30 29 29 29 29 29 29 29 29 30 31 32 32 32 32 33 33 33 34 34 33 32 32 32 32 32 32 31 30 30 29 29 29 29 29 29 29 29 29 29 29 29 29 29 29 29 29 30 30 30 30 30 29 29 28 28 28 27 27
28 28 28 29 29 28 28 28 28 28 28 28 28 28 29 31 32 32 31 31 31 31 32 33 33 32 32 31 31 31 31 31 30 30 30 29 29 29 29 29 29 29 29 29 29 29 29 29 29 29 29 29 30 30 30 30 30 29 29 28 28 28 27
27 27 28 29 28 27 28 28 28 28 28 27 27 27 27 29 30 31 30 29 29 29 31 31 32 31 31 31 31 31 31 31 30 30 29 29 29 29 29 29 29 29 29 29 29 29 29 29 29 29 29 29 29 30 30 30 30 30 29 29 28 28 28
26 27 27 28 28 27 27 28 28 27 27 27 27 27 27 27 28 29 28 27 28 28 29 30 30 30 30 30 30 30 30 30 30 30 29 29 29 29 29 29 29 29 29 29 29 29 29 29 29 29 29 29 29 29 29 30 30 30 30 29 28 28 27
26 26 26 26 26 26 26 27 27 26 26 26 26 27 27 27 27 27 27 27 28 28 28 29 29 29 29 30 30 30 30 30 30 30 29 29 29 29 29 29 29 29 29 29 29 29 29 29 29 29 29 29 29 29 29 29 29 30 29 28 27 27 27
25 26 26 26 25 25 26 26 26 26 26 26 25 26 26 26 26 27 27 27 27 27 28 28 28 29 29 29 29 29 29 30 30 30 30 30 29 29 30 30 29 29 29 29 29 29 29 29 29 29 29 29 29 29 29 29 29 29 29 28 27 26 25
25 25 25 25 25 25 25 25 25 25 25 25 25 25 26 26 26 26 27 27 27 27 28 28 28 29 29 29 30 30 29 30 30 29 30 30 30 30 30 30 30 30 30 30 29 29 29 29 29 29 29 29 29 29 29 29 29 29 29 28 28 27 26
24 25 25 25 25 25 24 24 25 25 24 24 25 26 26 26 26 27 27 27 27 27 27 28 28 29 29 29 29 29 29 30 30 30 30 30 31 30 30 30 30 29 29 29 29 28 28 28 28 27 27 27 27 28 28 28 28 28 27 27 27 26 26
23 24 25 25 25 25 25 24 24 24 24 25 26 27 27 27 27 27 27 27 27 27 27 28 28 29 29 28 27 27 28 29 29 29 29 29 29 30 30 30 29 29 28 28 28 27 27 26 26 26 26 25 25 26 26 27 26 26 26 25 25 24 24
22 23 24 25 25 25 25 25 25 24 24 24 25 26 26 26 27 27 27 27 27 27 27 28 28 29 29 28 26 26 27 27 27 27 27 28 28 28 28 28 29 28 27 27 26 26 26 26 26 26 25 25 24 24 24 24 24 24 24 24 23 22 21

ECMWFFLT1_925_temp_030.txt.gz
Temp
37 36 35 35 35 34 34 33 31 31 32 31 32 31 31 30 30 29 28 27 27 26 26 26 26 26 26 26 26 26 26 26 26 26 26 26 27 27 27 27 27 27 27 27 27 27 27 27 27 27 26 26 26 26 26 26 26 25 25 25 25 25 25
38 37 35 35 34 34 33 32 30 31 32 32 32 32 31 31 30 29 28 27 27 27 26 26 26 26 26 26 26 26 26 26 26 26 26 26 27 27 27 27 27 27 27 27 27 27 27 27 27 27 27 26 26 26 26 26 26 25 25 25 25 25 25
38 38 36 34 34 33 33 31 29 29 31 32 32 32 32 31 30 30 29 28 27 27 26 26 26 26 26 26 26 26 26 26 26 26 26 26 26 27 27 27 27 27 27 27 27 27 27 27 27 27 27 27 26 26 26 26 26 25 25 25 25 25 25
38 39 38 36 35 34 33 32 30 30 31 32 33 32 32 31 31 30 29 28 27 27 27 26 26 26 26 26 26 26 26 26 26 26 26 26 27 27 27 27 27 27 27 27 27 28 27 27 27 27 27 27 26 26 26 26 26 25 25 25 25 25 25
38 39 39 37 36 35 35 34 33 33 34 34 33 32 32 32 31 30 30 28 28 27 27 27 27 27 26 26 26 26 26 26 26 26 26 27 27 27 27 27 27 27 27 27 27 27 28 28 27 27 27 27 27 26 26 26 26 25 25 25 25 25 25
38 39 39 38 36 36 36 35 35 35 35 35 34 33 33 32 32 31 30 29 28 28 27 27 27 27 27 26 26 26 26 26 26 26 27 27 27 27 27 27 27 27 27 27 27 27 28 28 28 27 27 27 27 27 26 26 26 26 25 25 25 25 25
39 39 39 38 38 37 37 37 36 36 36 35 35 34 33 33 32 32 31 30 29 28 28 27 27 27 27 27 27 27 27 26 26 27 27 27 27 27 27 27 27 27 27 27 27 27 27 28 28 28 27 27 27 27 26 26 26 26 26 25 25 25 25
39 39 39 39 39 38 38 37 37 37 36 35 34 34 34 33 33 32 32 31 30 29 29 28 28 28 27 27 27 27 27 27 27 27 27 27 27 27 27 27 27 28 28 28 28 28 27 28 28 28 27 27 27 27 27 26 26 26 26 26 25 25 25
39 38 39 40 39 39 38 37 37 36 34 33 34 35 34 34 33 33 32 32 31 30 30 29 29 28 28 28 28 28 27 27 27 27 27 27 27 28 28 28 28 28 28 28 28 28 28 28 28 28 28 27 27 27 27 27 27 26 26 26 25 25 25
40 39 39 40 39 39 38 36 36 35 34 33 34 35 35 34 34 33 33 32 32 31 30 30 30 29 28 28 28 28 28 28 27 27 27 27 27 28 28 28 28 28 28 28 28 28 28 28 28 28 28 27 27 27 27 27 27 27 27 26 26 25 25
40 39 40 41 39 37 37 36 35 34 33 33 34 35 35 34 34 34 33 33 33 32 31 31 31 30 29 29 28 28 28 28 28 28 27 28 28 28 28 28 28 28 28 28 28 28 28 28 28 28 27 27 27 27 27 27 27 27 27 26 26 26 26
39 39 39 40 39 37 36 35 34 34 34 34 35 36 35 34 34 34 34 34 33 33 33 32 32 31 30 29 29 29 29 28 28 28 28 28 29 29 29 29 29 28 28 28 28 28 28 28 28 28 27 27 27 27 27 27 27 27 27 27 26 26 26
38 38 38 39 38 37 36 35 34 34 34 35 36 36 35 35 35 35 34 34 34 34 34 33 32 32 31 30 30 29 29 29 29 29 29 29 29 29 29 29 29 29 29 28 28 28 28 28 28 28 28 27 27 27 27 27 27 27 27 27 27 26 26
38 38 38 38 37 37 37 36 36 35 35 35 36 36 36 36 35 35 35 34 34 34 34 34 33 33 32 31 30 30 30 30 29 29 29 29 29 29 30 30 30 30 29 29 28 28 29 29 28 28 28 27 27 27 27 27 27 27 27 27 27 27 26
39 38 38 38 37 37 37 36 36 35 35 36 36 36 36 36 35 35 35 35 35 35 35 35 34 33 33 32 31 30 30 30 30 30 30 30 30 30 30 30 30 30 30 29 29 29 29 29 29 28 28 28 27 27 27 27 27 27 27 27 27 27 27
39 39 38 38 37 37 36 36 36 35 35 36 36 36 36 36 36 35 35 35 35 35 35 35 34 34 33 32 31 31 30 30 30 30 30 30 30 30 30 30 30 30 30 30 30 29 29 29 29 29 28 28 28 27 27 27 27 27 27 27 27 27 27
40 39 39 37 37 36 36 36 35 35 35 35 35 35 36 36 36 36 36 36 35 35 35 35 35 34 33 33 32 31 31 30 30 30 30 30 30 30 30 30 30 30 30 30 30 30 29 29 29 29 29 28 28 27 27 27 27 27 27 27 27 27 27
39 39 39 38 37 36 35 35 35 34 35 35 35 36 36 35 36 36 36 36 36 36 35 35 35 34 33 33 33 32 31 31 30 30 30 30 30 30 30 30 30 30 30 30 30 30 30 29 29 29 29 29 28 27 27 27 27 27 27 27 27 27 27
38 38 39 38 37 37 36 36 35 34 35 35 35 36 36 36 36 36 36 36 36 36 36 36 36 35 34 33 33 32 31 31 30 30 30 30 30 30 30 29 29 30 30 30 30 30 30 29 29 29 29 29 29 28 28 27 27 27 27 27 27 27 27
38 38 38 38 39 38 37 36 36 35 36 37 36 36 36 36 36 36 36 36 36 36 36 36 36 35 34 33 33 32 31 31 30 30 30 30 29 29 29 29 29 29 30 30 30 30 30 29 29 29 29 29 29 28 28 28 28 27 27 27 27 27 27
38 38 38 38 38 36 35 35 36 36 36 36 37 37 37 37 36 36 36 36 36 36 36 35 35 35 34 33 33 32 31 31 30 30 30 30 29 29 29 29 29 29 29 30 30 30 30 29 29 29 29 29 29 29 28 28 28 28 27 27 27 27 27
37 37 37 37 35 34 34 34 35 35 35 35 35 36 38 38 37 37 36 36 36 36 35 35 35 35 34 33 32 32 31 31 30 30 30 29 29 29 29 29 29 29 29 29 30 30 29 29 29 29 29 29 29 29 29 29 29 28 28 27 27 27 27
35 34 35 35 34 34 33 33 33 33 33 33 34 35 36 37 38 38 37 37 36 36 35 34 34 34 34 33 32 32 32 31 30 30 30 29 29 29 29 29 29 28 29 29 29 29 29 29 29 29 29 29 28 29 29 29 29 29 28 28 27 27 27
33 33 34 34 34 33 32 31 32 32 32 33 33 34 35 35 36 37 37 37 36 36 35 35 34 34 34 33 32 32 32 31 30 30 29 29 29 28 28 29 28 28 28 28 29 29 29 29 29 29 29 29 28 28 28 28 29 29 29 28 28 27 27
32 32 33 33 32 31 31 31 31 31 32 33 32 32 34 34 34 35 35 35 36 36 35 34 34 34 33 33 32 32 32 31 30 30 29 29 29 28 28 28 28 28 28 28 29 29 29 29 29 29 29 29 29 28 28 28 28 28 28 28 28 28 27
31 31 32 33 31 30 31 31 31 31 32 32 31 31 32 33 33 34 34 34 35 36 36 35 34 34 34 33 33 32 32 31 30 30 29 29 29 29 29 29 29 28 28 28 28 29 29 29 29 29 29 29 29 29 28 28 28 28 28 28 28 28 27
31 31 31 32 31 30 31 31 31 31 31 31 30 31 32 31 32 32 33 33 34 35 36 35 35 34 34 33 33 32 31 31 31 30 29 29 29 29 29 29 29 29 28 28 29 29 29 29 30 30 29 29 29 29 29 29 28 28 28 28 28 28 27
30 30 30 31 31 30 30 30 30 30 30 30 30 30 31 31 31 32 32 33 33 34 35 35 35 34 33 33 33 33 32 31 31 30 29 29 29 29 29 29 29 29 29 29 29 29 29 29 29 30 30 30 30 29 29 29 29 29 28 28 28 28 28
28 29 29 30 31 30 29 29 29 29 29 29 29 29 29 29 31 32 32 32 33 34 34 35 34 34 33 33 33 33 32 31 30 30 30 29 29 29 29 29 29 29 29 29 29 29 29 29 29 29 29 30 30 30 30 30 29 29 29 28 28 28 28
27 28 28 29 30 29 29 29 29 28 29 28 28 28 28 28 30 32 31 31 31 32 33 34 34 33 33 32 32 32 32 31 31 30 30 30 29 29 29 29 29 29 29 29 29 29 29 29 29 29 29 29 29 30 30 30 30 30 29 29 29 28 28
27 28 28 28 29 28 28 29 29 28 28 28 28 28 27 28 29 30 29 28 29 29 30 32 33 33 32 32 32 32 32 32 31 30 30 30 29 29 29 29 29 29 29 29 29 29 29 29 29 29 29 29 29 29 29 30 30 30 30 29 29 29 29
26 27 27 28 28 27 27 28 28 28 27 27 27 28 28 28 28 28 28 28 28 29 29 30 31 32 32 31 31 31 31 31 31 30 30 30 30 29 29 29 29 29 29 29 29 28 29 29 29 29 29 29 29 29 29 29 29 29 29 29 29 29 29
25 26 26 27 27 26 27 27 27 27 27 27 26 27 27 27 27 28 28 28 28 28 28 29 30 31 31 31 31 31 31 31 31 30 30 30 30 29 29 29 29 29 29 29 29 29 28 28 28 29 29 29 29 29 29 29 29 29 29 28 28 28 28
24 25 26 26 26 26 26 26 27 27 26 26 26 26 27 27 27 27 28 28 28 28 28 29 29 30 30 30 30 30 30 30 30 30 30 30 30 29 29 29 29 29 29 29 29 29 29 29 29 29 29 29 29 29 29 29 29 27 26 25 24 25 25
24 25 26 26 26 26 26 26 26 26 26 26 26 26 27 27 27 28 28 28 28 28 28 28 29 29 30 30 30 30 30 30 30 30 30 30 29 29 30 30 29 29 29 28 28 29 29 29 29 28 28 28 28 27 27 27 26 24 23 23 23 23 23
24 24 25 26 26 26 25 25 25 26 25 25 26 26 27 27 27 28 28 27 28 28 28 28 29 29 29 29 29 30 30 30 30 30 30 30 30 30 30 30 30 29 29 28 27 28 28 27 27 27 27 26 26 25 25 24 23 22 22 23 23 23 23
23 24 25 26 26 26 26 25 25 25 25 26 26 26 27 28 28 28 28 28 28 28 28 28 29 29 28 28 28 28 28 28 29 29 29 29 29 29 29 29 29 28 28 27 27 27 27 27 26 26 26 25 24 23 23 23 22 23 23 23 23 23 23
24 24 25 25 25 25 25 25 25 25 25 26 26 27 27 28 28 28 28 27 27 27 26 27 28 29 28 27 27 27 27 27 27 28 28 27 27 27 28 29 28 27 27 27 27 26 26 26 25 25 24 24 24 23 23 23 23 23 23 23 22 22 22

ECMWFFLT1_925_temp_033.txt.gz
Temp
33 33 32 32 32 31 31 31 30 30 30 29 30 30 29 29 28 28 27 26 26 26 26 26 25 25 25 25 25 25 25 25 25 25 25 26 26 26 26 26 26 26 26 26 26 26 26 26 26 25 25 25 25 25 25 25 25 25 25 25 25 25 25
34 33 33 32 32 31 31 30 30 30 30 30 29 30 29 29 28 28 27 26 26 26 25 25 25 25 25 25 25 25 25 25 25 25 25 26 26 26 26 26 26 26 26 27 26 26 26 26 26 26 25 25 25 25 25 25 25 25 25 25 25 25 25
34 33 33 33 32 32 31 30 30 30 30 30 29 29 29 29 29 28 27 27 26 26 26 25 25 25 25 25 25 25 25 25 25 25 25 25 26 26 26 26 26 26 26 27 27 26 26 26 26 26 26 26 25 25 25 25 25 25 25 25 25 25 25
34 34 33 33 33 32 31 31 30 30 30 30 30 29 30 29 29 28 28 27 26 26 26 25 25 25 25 25 25 25 25 25 25 25 25 25 26 26 26 26 26 26 26 26 26 26 26 26 26 26 26 26 26 25 25 25 25 25 25 25 25 25 25
34 34 33 33 33 32 31 31 30 30 30 30 30 30 30 30 29 29 28 27 27 26 26 26 25 25 25 25 25 25 25 25 25 25 25 25 25 26 26 26 26 26 26 26 26 26 26 26 26 26 26 26 26 26 25 25 25 25 25 25 25 25 25
34 34 34 33 33 32 32 31 31 31 31 31 30 30 30 30 29 29 28 27 27 26 26 26 25 25 25 25 25 25 25 25 25 25 25 25 25 25 26 26 26 26 26 26 26 26 26 26 26 26 26 26 26 26 26 25 25 25 25 25 25 25 25
35 34 34 34 33 33 32 32 31 31 31 31 31 31 30 30 30 29 29 28 27 27 26 26 26 25 25 25 25 25 25 25 25 25 25 25 25 25 26 26 26 26 26 26 26 26 26 26 26 26 26 26 26 26 26 26 25 25 25 25 25 25 25
35 34 34 34 33 33 32 32 32 31 31 31 31 31 31 31 30 30 29 28 28 27 27 26 26 26 26 25 25 25 25 25 25 25 25 25 25 25 26 26 26 26 26 26 26 26 26 26 27 26 27 27 26 26 26 26 26 25 25 25 25 25 25
36 35 34 34 34 33 33 32 32 31 31 31 31 31 31 31 31 30 30 29 28 28 27 27 26 26 26 26 25 25 25 25 25 25 25 25 25 25 26 26 26 26 26 26 26 26 26 27 27 27 27 27 26 26 26 26 26 25 25 25 25 25 25
36 35 34 35 34 34 33 32 32 31 31 31 31 31 31 31 31 31 30 30 29 28 28 27 27 26 26 26 26 26 26 25 25 25 25 25 25 26 26 26 26 26 26 26 26 26 26 26 27 27 27 27 27 27 26 26 26 26 25 25 25 25 25
36 35 34 35 35 34 34 33 32 32 31 31 31 31 31 31 32 31 31 30 29 29 28 28 27 27 26 26 26 26 26 26 26 25 25 25 26 26 26 26 26 26 26 26 27 27 27 26 27 27 27 27 27 27 27 26 26 26 26 25 25 25 25
36 35 34 35 35 34 34 34 33 32 32 31 31 31 31 31 32 32 32 31 30 29 28 28 28 27 27 27 26 26 26 26 26 26 26 26 26 26 26 26 26 26 26 27 27 27 27 27 27 27 27 27 27 27 27 27 26 26 26 25 25 25 25
36 35 35 35 35 34 34 34 33 33 32 31 32 32 31 31 32 32 32 32 31 30 29 28 28 28 27 27 27 26 26 26 26 26 26 26 26 26 26 27 27 27 27 27 27 27 27 27 27 27 27 27 27 27 27 27 26 26 26 26 25 25 25
36 35 35 35 35 34 34 33 32 32 32 31 32 32 32 32 32 32 32 32 32 31 30 29 29 28 28 28 27 27 27 27 26 26 26 26 26 27 27 27 27 27 27 27 27 27 27 27 27 27 27 27 27 27 27 26 26 26 26 26 26 25 25
36 35 35 35 34 34 33 33 32 32 31 31 31 32 32 33 32 33 32 32 32 32 31 30 29 29 29 28 28 27 27 27 27 27 27 27 27 27 27 27 27 27 28 27 27 27 27 27 27 27 27 27 27 27 27 26 26 26 26 26 26 26 26
35 35 34 34 34 33 33 32 32 31 31 31 31 32 33 33 32 33 32 32 32 32 32 31 30 30 29 29 28 28 28 27 27 27 27 27 27 27 27 27 27 28 28 28 28 27 27 27 27 27 27 27 27 27 27 26 26 26 26 26 26 26 26
35 35 34 34 33 33 32 32 32 31 31 32 31 32 33 33 33 33 33 33 33 33 33 32 31 30 30 29 29 28 28 28 28 27 27 27 27 27 27 27 28 28 28 28 28 28 28 28 27 27 27 27 27 27 26 26 26 26 26 26 26 26 26
35 35 34 34 33 33 33 32 32 32 32 32 32 32 33 33 33 33 33 33 33 33 33 33 32 31 30 30 29 29 28 28 28 28 28 27 27 27 27 27 28 28 28 28 28 28 28 28 28 28 27 27 27 27 27 26 27 27 26 26 26 26 26
36 35 35 34 34 33 33 33 33 32 33 33 32 33 34 34 33 33 33 34 34 33 33 33 33 32 31 31 30 29 29 28 28 28 28 28 28 28 27 27 28 28 28 28 28 28 28 28 28 28 28 28 27 27 27 27 27 27 27 27 26 26 26
35 35 34 34 33 34 33 33 33 32 32 33 34 34 34 34 34 34 34 34 34 34 34 33 33 33 31 31 31 30 29 29 29 28 28 28 28 28 28 27 28 28 28 28 28 28 28 28 28 28 28 28 28 27 27 27 27 27 27 27 27 27 26
32 32 32 31 32 32 32 33 33 31 31 33 34 35 35 35 35 35 35 34 34 34 34 34 34 33 32 31 31 30 29 29 29 28 28 28 28 28 28 28 28 28 28 28 28 28 28 28 28 28 28 28 28 28 27 27 27 27 27 27 27 27 27
31 30 30 30 30 30 30 31 31 31 31 33 34 34 35 35 35 35 35 35 35 34 34 34 33 33 33 32 31 31 30 29 29 29 29 28 28 28 28 28 28 28 28 28 28 28 28 28 28 28 28 28 28 28 28 28 28 27 27 27 27 27 27
31 30 30 30 29 29 29 29 30 31 32 32 33 33 33 34 34 35 35 35 35 35 34 33 33 33 33 32 31 31 30 30 29 29 29 29 28 28 28 28 28 28 28 28 28 28 28 28 28 28 28 28 28 28 28 28 28 28 27 27 27 27 27
30 30 30 29 29 29 29 30 31 31 31 31 31 31 32 32 33 33 33 34 34 34 34 33 33 33 32 32 32 31 31 30 30 29 29 29 28 28 28 28 28 28 28 28 28 28 28 28 28 28 28 28 28 28 28 28 28 28 28 27 27 27 27
30 30 29 29 29 29 29 30 30 30 30 30 30 31 31 31 31 32 32 32 33 33 33 33 33 33 33 32 32 32 31 30 30 29 29 29 29 28 28 28 28 28 28 28 28 28 28 29 29 28 29 28 28 28 28 28 28 28 28 28 28 27 27
29 29 29 29 29 29 29 29 29 29 29 29 30 30 30 30 30 30 31 31 32 32 32 33 33 34 34 33 33 32 31 31 30 30 29 29 29 29 28 28 28 28 28 28 28 28 28 29 29 29 29 29 29 29 28 28 28 28 28 28 28 28 27
28 28 28 28 29 29 29 29 29 29 29 29 29 29 29 29 29 29 29 31 31 32 32 33 33 34 34 34 33 32 31 31 30 30 30 29 29 29 29 28 28 28 28 28 28 28 28 28 28 28 29 29 29 29 29 28 28 28 28 28 28 28 28
27 27 28 28 28 29 29 28 28 28 28 28 28 28 28 28 27 28 29 30 30 31 32 33 33 34 34 34 33 32 32 31 30 30 30 29 29 29 28 28 28 28 28 28 28 28 28 28 28 28 28 28 29 29 29 29 28 28 28 28 28 28 28
25 26 27 27 27 27 28 28 28 28 28 27 27 27 27 27 27 27 28 29 29 30 31 32 33 33 33 33 33 32 32 31 30 30 29 29 29 29 28 28 28 28 28 28 28 28 28 28 28 28 28 28 28 28 28 28 29 28 28 28 28 28 28
25 25 26 26 26 26 27 27 27 27 27 27 27 27 27 27 27 27 27 28 28 29 30 31 32 32 33 32 32 32 31 31 30 30 29 29 29 29 28 28 28 28 28 28 28 27 27 27 27 27 27 27 28 28 28 28 29 29 28 28 28 28 28
24 24 24 25 26 26 26 26 26 27 27 26 26 26 27 27 27 27 27 28 28 29 30 31 31 31 32 32 32 31 31 30 30 30 29 29 29 29 28 28 28 28 28 28 28 27 27 27 27 27 27 27 27 28 28 28 29 29 29 29 28 28 28
23 23 23 24 25 26 26 26 26 26 26 26 26 26 26 27 27 27 27 28 28 28 29 30 30 31 31 31 31 31 31 30 30 29 29 29 29 29 28 28 28 28 28 27 27 27 27 27 27 27 27 27 27 28 28 29 29 28 28 28 27 27 27
23 23 23 23 24 25 25 25 25 25 25 25 26 26 26 26 27 27 27 28 28 28 28 29 30 30 30 31 31 31 30 30 29 29 29 29 29 29 28 28 28 28 28 28 27 27 27 27 27 27 27 27 27 27 28 28 28 27 26 26 26 26 26
22 22 23 23 24 25 25 25 24 25 25 25 25 25 26 26 27 27 27 27 28 28 28 29 29 29 30 30 30 31 30 30 29 29 29 29 29 29 28 28 28 28 28 28 28 27 27 27 27 27 27 27 27 28 27 26 26 25 25 25 25 25 25
22 22 23 23 24 25 25 25 25 25 25 25 25 25 26 26 27 27 27 27 27 27 28 28 29 29 29 30 30 30 30 30 30 29 29 29 29 29 28 28 28 28 28 27 28 28 27 27 27 27 27 27 27 27 26 25 23 24 24 24 24 24 24
22 22 23 23 24 25 25 25 25 25 25 25 25 25 26 26 26 27 27 27 27 27 27 28 28 28 29 29 29 30 30 30 29 29 29 29 29 28 27 26 27 27 27 26 27 27 27 27 27 26 26 26 25 25 25 24 23 23 23 23 24 24 24
22 22 23 23 23 24 25 25 25 25 25 25 24 24 25 25 26 26 26 26 26 27 27 27 27 27 27 28 28 28 29 29 29 29 28 29 28 27 25 24 24 25 25 25 25 26 26 26 25 25 25 25 24 24 23 23 23 23 23 23 23 23 23
22 22 23 23 23 23 24 24 24 24 24 24 24 23 23 24 24 25 25 26 26 26 26 26 26 26 26 26 26 27 27 27 27 27 28 28 27 26 25 23 21 21 22 23 24 24 24 24 24 24 24 24 24 23 23 23 22 22 22 22 22 22 22

ECMWFFLT1_925_temp_036.txt.gz
Temp
31 31 31 30 30 30 30 30 29 29 28 28 28 27 27 27 27 26 26 25 25 25 25 25 25 24 24 24 24 24 24 24 24 24 24 24 25 25 25 25 25 25 26 26 26 26 25 25 25 25 25 25 24 24 24 24 24 24 24 24 24 24 24
32 31 31 30 30 30 30 30 29 29 29 28 28 28 27 27 27 26 26 26 25 25 25 25 25 24 24 24 24 24 24 24 24 24 24 24 24 25 25 25 25 26 26 26 26 26 26 25 26 25 25 25 25 25 25 25 25 24 24 24 24 24 24
32 31 31 31 30 30 30 29 29 29 29 29 29 28 28 27 27 26 26 26 25 25 25 25 25 24 24 24 24 24 24 24 24 24 24 24 24 25 25 25 25 26 26 26 26 26 26 26 26 26 26 25 25 25 25 25 25 25 24 24 24 24 24
32 32 31 31 30 30 30 29 29 29 29 29 29 29 28 28 27 27 26 26 26 25 25 25 25 25 24 24 24 24 24 24 24 24 24 24 25 25 25 25 25 26 26 26 26 26 26 26 26 26 26 25 25 25 25 25 25 25 24 24 24 24 24
32 32 31 31 30 30 30 29 29 29 29 29 29 29 28 28 27 27 26 26 26 25 25 25 25 25 25 24 24 24 24 24 24 24 24 24 24 25 25 25 25 25 26 26 26 26 26 26 26 26 26 26 25 25 25 25 25 25 25 24 24 24 24
32 32 31 31 30 30 30 30 30 30 30 30 29 29 29 28 27 27 27 26 26 26 26 25 25 25 25 25 24 24 24 24 24 24 24 24 24 24 25 25 25 25 26 26 26 26 26 26 26 26 26 26 25 25 25 25 25 25 25 24 24 24 24
32 32 31 31 31 30 30 30 30 30 30 30 29 29 29 28 28 27 27 26 26 26 26 25 25 25 25 25 24 24 24 24 24 24 24 24 24 24 24 25 25 25 25 25 26 26 25 26 26 26 26 26 25 25 25 25 25 25 25 24 24 24 24
32 32 32 31 31 31 30 30 30 30 30 30 29 29 29 29 28 28 27 27 26 26 26 25 25 25 25 25 24 24 24 24 24 24 24 24 24 24 24 24 25 25 25 25 25 26 26 26 26 26 26 26 25 25 25 25 25 25 25 24 24 24 24
33 32 32 32 31 31 30 30 30 30 30 29 29 29 29 29 28 28 28 27 27 26 26 26 25 25 25 25 25 24 24 24 24 24 24 24 24 24 24 24 24 24 25 25 25 25 26 26 26 26 26 25 25 25 25 25 25 25 25 25 25 24 24
33 32 32 32 32 31 31 30 30 29 29 29 29 29 29 29 29 28 28 27 27 26 26 26 26 25 25 25 25 25 24 24 24 24 24 24 24 24 24 24 24 24 25 25 25 25 25 26 26 26 26 25 25 25 25 25 25 25 25 25 25 25 25
33 32 32 32 32 31 31 30 30 29 29 29 29 29 29 29 29 29 28 28 27 27 26 26 26 26 25 25 25 25 24 24 24 24 24 24 24 24 24 24 24 24 25 25 25 25 25 25 25 25 25 25 26 26 25 25 25 25 25 25 25 25 25
33 32 32 32 32 31 31 30 29 29 29 28 29 29 29 29 29 29 29 28 28 27 27 26 26 26 25 25 25 25 24 24 24 24 24 24 24 24 24 24 24 24 25 25 25 25 25 25 25 25 25 25 26 26 26 25 25 25 25 25 25 24 25
33 32 32 32 32 31 31 30 29 29 29 28 29 29 29 29 29 29 29 29 28 28 27 27 26 26 26 25 25 25 25 24 24 24 24 24 24 24 24 24 24 24 25 25 25 25 25 25 25 25 25 25 26 26 26 25 25 25 25 25 25 24 24
33 32 32 32 32 31 31 30 29 29 29 29 29 29 29 29 30 30 29 29 29 28 28 27 27 26 26 26 25 25 25 25 25 25 24 24 24 24 24 24 24 25 25 25 25 25 25 25 25 25 25 25 26 26 26 25 25 25 25 25 25 25 24
33 32 32 32 32 31 31 30 29 29 29 29 29 29 29 29 30 30 30 29 29 29 28 28 27 27 26 26 26 25 25 25 25 25 25 25 24 24 24 24 25 25 25 25 25 25 25 25 25 25 25 25 25 26 25 25 25 25 25 25 25 25 25
33 33 33 32 32 31 31 30 30 29 29 29 29 29 29 29 30 30 30 30 29 29 29 28 27 27 27 26 26 26 26 25 25 25 25 25 25 25 24 24 25 25 25 25 25 25 25 25 25 25 25 25 25 25 25 25 25 25 25 25 25 25 25
33 33 33 32 32 32 31 30 30 29 29 29 29 29 30 30 30 30 30 30 30 29 29 28 28 27 27 27 26 26 26 26 25 25 25 25 25 25 25 25 25 25 25 25 25 25 25 25 25 25 25 25 25 25 25 25 25 26 26 26 25 25 25
34 33 33 33 32 32 31 31 30 29 29 29 29 29 30 30 30 30 30 31 30 30 30 29 28 28 27 27 27 27 26 26 26 26 25 25 25 25 25 25 25 25 25 25 25 25 25 25 25 25 26 26 25 25 25 25 26 26 26 26 26 26 25
33 33 33 33 32 32 32 31 30 30 29 30 30 30 30 30 30 30 31 31 31 31 30 29 29 28 28 27 27 27 27 26 26 26 26 25 25 25 25 25 25 25 25 25 25 25 25 25 25 26 26 26 26 26 25 25 26 26 26 26 26 26 25
30 31 31 31 31 31 31 31 30 29 29 30 30 30 31 31 31 31 31 31 31 31 31 30 29 29 28 28 28 27 27 27 26 26 26 26 26 25 25 25 25 25 25 25 25 25 26 26 26 26 26 26 26 26 26 26 26 26 26 26 26 26 26
28 29 29 29 30 30 30 31 30 29 29 31 31 31 31 31 31 31 31 31 31 31 31 31 30 30 29 28 28 28 27 27 27 26 26 26 26 26 25 25 25 25 25 25 25 26 26 26 26 26 26 26 26 26 26 26 26 26 26 26 26 26 26
28 28 27 27 28 28 28 29 29 29 29 30 31 31 31 32 32 31 31 32 32 31 31 31 31 30 29 29 28 28 28 27 27 27 26 26 26 26 26 25 25 25 25 26 26 26 26 26 26 26 26 26 26 26 26 26 26 26 26 26 26 26 26
27 27 27 27 27 27 27 27 27 27 27 28 29 29 30 31 32 32 32 32 31 31 31 31 31 30 30 29 29 28 28 28 27 27 27 26 26 26 26 26 26 26 26 26 26 26 26 26 26 26 26 26 26 26 26 26 26 26 26 26 26 26 26
27 27 27 27 26 26 26 27 27 27 27 27 27 27 29 30 31 31 31 31 31 31 31 30 30 31 30 30 29 29 29 28 28 28 27 27 26 26 26 26 26 26 26 26 26 26 26 26 26 26 26 26 26 26 26 26 26 26 26 26 26 26 26
26 26 26 26 26 26 26 26 26 26 27 26 26 27 28 29 29 30 30 30 31 31 30 30 30 31 31 30 30 30 29 29 28 28 28 27 27 27 27 26 26 26 26 26 26 26 26 27 27 27 27 27 27 27 26 26 26 26 26 26 26 26 26
25 26 26 26 26 26 26 26 26 25 25 25 26 27 27 28 28 29 28 29 29 30 30 31 31 31 31 31 31 30 30 29 29 28 28 28 27 27 27 27 27 27 26 26 26 26 27 27 27 27 27 27 27 27 27 27 27 26 27 27 27 27 27
24 25 25 25 25 25 26 25 25 25 25 26 26 26 27 27 27 27 27 28 28 29 30 30 31 31 31 31 31 30 30 30 29 29 29 28 28 28 27 27 27 27 27 27 26 26 27 27 27 27 27 27 27 27 27 27 27 27 27 27 27 27 27
23 24 24 24 25 25 25 24 25 25 25 26 26 26 26 26 26 26 26 27 27 28 29 30 31 31 31 31 31 31 30 30 29 29 29 28 28 28 28 27 27 27 27 27 27 27 27 27 27 27 27 27 27 27 27 27 27 27 27 27 27 27 27
22 22 23 24 24 24 24 24 24 24 25 26 26 26 26 26 25 25 26 26 27 28 29 29 31 31 32 31 31 31 31 30 30 29 29 28 28 28 28 28 27 27 27 27 27 27 26 26 27 27 27 27 27 27 27 27 27 28 28 28 28 27 27
22 22 22 23 23 24 24 23 23 24 25 26 26 26 26 25 25 25 26 26 27 28 28 29 30 31 32 31 31 31 31 30 30 29 29 28 28 28 28 27 27 27 27 27 27 26 26 26 26 26 26 26 26 27 27 27 27 28 28 28 28 28 28
21 21 22 22 22 23 24 23 23 24 25 25 25 25 26 25 25 25 26 27 27 27 28 28 29 30 31 31 30 30 30 30 29 29 29 28 28 28 27 27 27 27 27 27 26 26 26 26 26 26 26 26 26 26 27 27 27 27 28 28 28 28 28
21 21 21 21 22 23 24 24 24 24 24 25 25 25 25 25 25 25 26 27 27 27 27 28 28 29 30 30 30 29 29 29 29 28 28 28 28 28 28 27 27 27 26 26 26 26 26 26 26 26 26 26 26 26 27 27 27 27 27 27 27 27 27
20 20 20 21 21 22 23 24 23 23 23 24 24 25 25 25 26 26 26 26 27 27 27 28 28 28 28 29 29 29 29 29 28 28 28 28 28 28 27 27 27 27 26 26 26 26 26 26 26 26 26 25 26 26 27 27 26 26 26 26 26 26 27
20 20 20 21 22 22 23 24 23 23 23 23 23 24 24 25 25 25 25 26 26 27 27 28 28 28 28 28 29 29 29 29 28 28 27 27 27 26 26 27 27 27 27 27 26 26 26 26 26 26 26 26 26 26 26 26 25 25 25 25 26 26 26
20 20 20 21 22 22 22 23 24 24 23 23 23 24 24 24 25 25 25 26 26 27 27 27 27 28 28 28 28 28 28 28 28 28 27 26 25 25 24 25 26 26 26 26 26 26 26 26 26 26 26 26 26 26 25 25 25 25 25 25 25 25 25
19 19 20 21 21 22 22 23 24 24 23 22 24 24 23 24 24 24 25 25 26 26 27 27 27 27 28 28 28 28 28 28 28 28 27 25 24 23 22 23 24 25 25 25 26 26 26 26 26 26 26 26 26 25 25 25 25 24 24 24 24 24 24
19 19 20 21 21 21 22 22 23 23 23 22 23 24 23 23 24 24 25 25 25 26 26 26 26 26 26 27 27 27 28 28 27 27 26 24 24 24 23 22 22 23 23 24 24 25 25 25 25 25 25 25 25 25 25 24 24 24 24 24 24 24 24
19 19 20 21 21 21 22 22 22 23 23 23 23 23 23 24 24 24 25 25 25 25 25 25 25 25 25 26 26 27 27 28 27 26 25 23 23 23 23 22 20 20 21 22 23 24 24 24 24 24 24 24 25 25 24 23 23 23 23 23 23 23 23

ECMWFFLT1_925_temp_042.txt.gz
Temp
29 29 29 28 28 28 28 27 27 27 26 26 26 26 25 25 25 25 24 24 24 24 23 23 23 23 23 23 23 23 23 23 23 23 23 23 23 23 23 23 24 24 24 24 24 24 24 25 25 25 25 25 25 25 25 25 25 24 24 24 24 24 24
29 29 29 29 28 28 28 27 27 27 27 26 26 26 26 25 25 25 24 24 24 24 24 23 23 23 23 23 23 23 23 23 23 23 23 23 23 23 23 23 24 24 24 24 24 24 24 25 25 25 25 25 25 25 25 25 25 24 24 24 24 24 24
29 29 29 29 29 28 28 28 27 27 27 27 26 26 26 26 25 25 25 24 24 24 24 23 23 23 23 23 23 23 23 23 23 23 23 23 23 23 23 23 24 24 24 24 24 24 24 24 25 25 25 25 25 25 25 25 25 25 24 24 24 24 24
30 30 30 29 29 28 28 28 27 27 27 27 27 26 26 26 25 25 25 25 24 24 24 24 23 23 23 23 23 23 23 23 23 23 23 23 23 23 23 23 23 24 24 24 24 24 24 24 24 25 25 25 25 25 25 25 25 25 25 24 24 24 24
30 30 30 29 29 29 28 28 28 27 28 27 27 27 26 26 26 25 25 25 25 24 24 24 24 23 23 23 23 23 23 23 23 23 23 23 23 23 23 23 23 23 24 24 24 24 24 24 24 24 24 25 25 25 25 25 25 25 25 24 24 24 24
30 30 30 30 29 29 28 28 28 28 28 28 27 27 27 26 26 25 25 25 25 24 24 24 24 23 23 23 23 23 23 23 23 23 23 23 23 23 23 23 23 23 23 24 24 24 24 24 24 25 25 25 25 25 25 25 25 25 25 24 24 24 24
30 30 30 30 30 29 29 29 28 28 28 28 28 27 27 26 26 26 25 25 25 25 24 24 24 23 23 23 23 23 23 23 23 23 23 23 23 23 23 23 23 23 23 23 23 24 24 24 24 25 25 25 24 25 25 25 25 25 25 24 24 24 24
31 30 30 30 30 30 29 29 29 28 28 28 28 27 27 27 26 26 26 25 25 25 24 24 24 24 23 23 23 23 23 23 23 23 23 23 23 23 23 23 23 23 23 23 23 24 24 24 24 24 25 25 25 25 25 25 25 25 24 24 24 24 24
31 31 30 30 30 30 30 29 29 28 28 28 28 27 27 27 26 26 26 25 25 25 25 24 24 24 24 23 23 23 23 23 23 23 23 23 23 23 23 23 23 23 23 23 23 23 24 24 24 24 24 24 25 25 25 25 25 25 25 24 24 24 24
32 31 31 31 30 31 30 30 29 28 27 27 27 27 27 27 27 26 26 26 25 25 25 25 24 24 24 23 23 23 23 23 23 23 23 23 23 23 23 23 23 23 23 23 23 23 23 24 24 24 24 24 24 25 25 25 25 25 25 25 25 25 25
31 31 31 31 30 30 30 29 29 28 27 27 27 27 27 27 27 26 26 26 26 25 25 25 25 24 24 24 23 23 23 23 23 23 23 23 23 23 23 23 23 23 23 23 23 23 23 23 23 23 24 24 24 24 25 25 25 25 24 24 24 24 24
31 31 31 30 30 30 30 29 29 28 27 27 27 27 27 27 27 26 26 26 26 26 25 25 25 24 24 24 23 23 23 23 23 23 23 23 23 23 23 23 23 23 23 23 23 23 23 23 23 23 23 24 24 24 24 25 24 24 24 24 24 24 24
31 31 31 30 30 30 29 29 28 28 27 27 27 27 27 27 27 27 26 26 26 26 25 25 25 25 24 24 24 23 23 23 23 23 23 23 23 23 23 23 23 23 23 23 23 23 23 23 23 23 23 23 24 24 24 24 24 24 24 24 24 24 24
30 30 31 30 30 29 29 29 28 28 27 27 27 27 27 27 27 27 26 26 26 26 26 25 25 25 24 24 24 24 23 23 23 23 23 23 23 23 23 23 23 23 23 23 23 23 23 23 23 23 23 23 23 23 24 23 23 24 24 24 24 24 24
30 30 30 30 29 29 29 28 28 28 27 27 27 27 27 27 27 27 26 26 26 26 26 25 25 25 25 24 24 24 24 24 23 23 23 23 23 23 23 23 23 23 23 23 23 23 23 23 23 23 23 23 23 23 23 23 23 23 24 24 24 24 24
30 30 30 30 29 29 29 28 28 28 27 27 27 27 27 27 27 27 27 26 26 26 26 25 25 25 25 24 24 24 24 24 23 23 23 23 23 23 23 23 23 23 23 23 23 23 23 23 23 23 23 23 23 23 23 23 23 23 23 24 24 24 24
29 30 30 29 29 29 29 28 28 27 27 27 27 27 27 27 27 27 27 27 26 26 26 26 25 25 25 25 24 24 24 24 23 23 23 23 23 23 23 23 23 23 23 23 23 23 23 23 23 23 23 23 22 22 22 22 23 23 23 23 23 23 23
29 30 30 29 29 29 28 28 28 27 27 27 27 27 27 27 27 27 27 27 26 26 26 26 25 25 25 25 25 24 24 24 23 23 23 23 23 23 23 23 23 23 23 23 23 23 23 23 23 23 23 23 22 22 22 23 23 23 23 23 23 23 23
29 29 30 29 29 29 28 28 28 27 27 27 27 27 27 27 27 27 27 27 27 26 26 26 25 25 25 25 25 24 24 24 24 23 23 23 23 23 23 23 23 23 23 23 23 23 23 23 23 23 23 23 23 23 23 23 23 23 23 23 23 23 23
29 29 29 29 29 29 28 28 28 27 27 27 28 28 28 28 27 27 27 27 27 27 26 26 26 25 25 25 25 24 24 24 24 24 23 23 23 23 23 23 23 23 23 23 23 23 23 23 23 23 23 23 23 23 23 23 23 23 23 23 23 23 23
30 30 29 29 29 28 28 28 28 27 27 27 28 28 28 27 27 27 27 27 27 27 26 26 26 25 25 25 25 25 24 24 24 24 24 23 23 23 23 23 23 23 23 23 23 23 23 23 23 23 23 23 23 23 23 23 23 23 23 23 23 23 23
27 29 29 29 28 28 28 27 27 27 27 27 27 28 27 27 27 27 27 27 27 27 26 26 26 26 25 25 25 25 24 24 24 24 24 24 23 23 23 23 23 23 23 23 23 23 23 23 23 23 23 23 23 23 23 23 23 23 23 23 23 23 23
24 26 28 28 27 26 26 26 27 27 27 27 27 27 27 27 28 27 27 27 27 27 26 26 26 26 25 25 25 25 25 24 24 24 24 24 23 23 23 23 23 23 23 23 23 23 23 23 23 23 23 23 23 23 23 23 23 23 23 23 23 23 23
22 23 25 26 26 25 25 26 26 27 27 27 27 27 27 27 27 27 27 27 27 27 26 26 26 26 26 25 25 25 25 25 25 24 24 24 24 23 23 23 23 23 23 23 23 23 23 23 23 23 23 23 23 23 23 23 23 23 23 23 23 23 23
22 22 23 24 25 25 25 26 26 27 27 27 27 27 28 28 28 27 27 27 27 26 26 26 26 26 26 26 26 26 25 25 25 25 24 24 24 24 24 24 24 23 23 23 23 23 23 23 23 23 23 23 23 23 23 23 23 23 23 23 23 23 23
21 22 22 22 23 24 24 25 26 26 26 26 26 27 28 28 28 27 27 27 27 26 26 26 27 27 27 26 26 26 26 25 25 25 25 24 24 24 24 24 24 24 23 23 23 23 23 23 23 23 23 23 23 23 23 23 23 24 24 24 24 24 24
21 22 22 22 22 22 23 23 24 24 24 25 26 27 28 28 27 27 26 27 26 26 27 27 27 27 27 27 26 26 26 26 25 25 25 25 25 25 24 24 24 24 24 23 23 23 23 23 23 23 23 23 23 23 23 23 24 24 24 24 24 24 24
20 21 21 22 22 22 22 22 22 22 22 23 25 26 27 27 26 26 26 26 26 27 27 27 27 27 27 27 27 26 26 26 26 26 25 25 25 25 25 24 24 24 24 24 24 23 23 23 23 23 23 23 23 24 24 24 24 24 24 24 24 24 24
19 20 20 21 21 21 21 21 21 21 22 23 24 25 26 26 25 25 25 25 25 26 27 27 27 27 27 27 27 27 27 26 26 26 26 26 25 25 25 25 24 24 24 24 24 24 23 23 23 23 23 23 23 24 24 24 24 24 24 24 25 25 25
19 19 20 20 20 21 21 20 20 20 21 22 23 24 25 25 24 24 24 24 25 26 27 27 27 27 27 27 27 27 27 27 27 27 26 26 26 25 25 25 25 24 24 24 24 24 23 23 23 23 23 23 24 24 24 24 24 24 25 25 25 25 25
19 19 19 19 20 20 20 20 20 20 21 22 23 24 25 25 25 24 23 24 25 26 27 27 27 27 27 27 27 27 27 27 27 27 27 26 26 25 25 25 25 25 24 24 24 24 24 24 23 23 23 23 23 24 24 24 24 25 25 25 25 25 25
18 18 19 19 19 20 20 20 20 20 20 21 22 23 24 25 25 24 24 25 26 26 27 27 27 27 27 27 27 27 27 27 26 26 26 26 26 26 26 25 25 25 24 24 24 24 24 24 23 23 23 23 23 24 24 24 25 25 25 25 25 25 26
18 18 18 18 19 19 20 20 20 20 20 20 21 22 24 25 25 25 25 26 26 26 27 27 27 27 27 27 28 28 27 27 27 26 26 26 26 26 26 25 25 25 24 24 24 24 24 24 24 23 23 23 24 24 24 24 24 25 25 25 25 25 26
17 18 18 18 19 19 19 19 19 19 19 19 20 21 23 24 24 25 26 26 26 26 26 27 27 27 27 27 27 27 27 27 27 26 25 25 25 25 25 25 25 25 25 24 24 24 24 24 24 24 24 24 24 24 24 24 24 24 25 25 25 26 26
17 17 17 18 18 19 19 19 19 19 19 19 20 21 22 23 23 25 25 26 26 26 26 26 26 26 26 27 27 26 26 25 25 25 24 24 24 24 24 24 24 24 25 25 25 25 24 24 24 24 24 24 24 24 24 24 24 25 25 25 25 25 25
16 17 17 17 18 18 19 19 19 19 19 20 21 22 22 22 23 24 24 25 25 26 25 25 25 25 25 25 25 25 25 24 24 24 24 23 23 22 22 22 23 24 24 24 24 24 25 25 25 25 25 25 24 24 24 24 25 25 25 25 25 25 25
16 16 17 17 17 17 18 19 19 20 20 20 21 22 22 23 23 23 24 24 25 25 25 25 25 24 24 24 24 24 24 24 23 23 22 22 22 22 21 21 21 22 23 23 24 24 24 24 25 25 25 25 25 24 24 24 24 24 24 24 24 24 24
16 16 16 17 17 17 17 18 19 19 20 21 22 22 23 23 23 23 23 24 24 25 25 24 24 24 23 23 23 23 23 23 22 22 21 21 21 22 22 21 20 20 20 22 22 23 23 24 24 24 24 24 24 24 24 23 23 23 23 23 23 23 23

ECMWFFLT1_925_temp_045.txt.gz
Temp
31 31 30 30 29 29 28 28 28 28 27 27 26 26 26 26 25 25 24 24 24 23 23 23 22 22 22 22 22 22 22 22 23 23 23 23 23 23 23 23 24 24 24 24 24 24 24 25 25 25 25 25 25 25 25 25 24 24 24 24 23 22 22
31 31 31 30 30 29 29 29 28 28 28 27 27 26 26 26 25 25 25 24 24 23 23 23 23 23 22 22 22 22 22 22 23 23 23 23 23 23 23 23 24 24 24 24 24 24 25 25 25 25 25 25 25 25 25 25 25 24 24 24 23 22 22
32 31 31 31 30 29 29 29 29 28 28 28 27 27 27 26 25 25 25 24 24 24 23 23 23 23 23 23 22 22 22 22 22 23 23 23 23 23 23 23 24 24 24 24 24 24 24 24 25 25 25 25 25 25 25 25 25 25 24 24 23 22 22
32 32 32 31 30 30 29 29 29 29 28 28 28 27 27 26 26 25 25 25 24 24 24 23 23 23 23 23 23 22 22 22 22 23 23 23 23 23 23 23 23 23 24 24 24 24 24 24 24 25 25 25 24 25 25 25 25 25 24 24 23 22 22
32 32 32 31 31 30 30 29 29 29 29 29 28 27 27 26 26 26 25 25 25 24 24 24 24 23 23 23 23 23 23 23 23 23 23 23 23 23 23 23 23 23 23 24 24 24 24 24 24 24 24 24 24 24 24 25 25 25 25 24 23 22 22
32 32 32 31 31 31 30 30 30 30 29 29 29 28 27 27 27 26 26 26 25 25 25 24 24 24 23 23 23 23 23 23 23 23 23 23 23 23 23 23 23 23 23 24 24 24 24 24 24 24 24 24 24 24 24 24 24 24 25 24 24 23 22
33 32 31 31 31 31 31 30 31 30 30 30 29 28 28 27 27 27 27 26 26 25 25 25 25 24 24 24 23 23 23 23 23 23 23 23 23 23 23 23 23 23 23 23 24 24 24 24 24 24 24 24 24 24 24 24 24 24 24 24 24 23 23
33 32 32 32 32 32 31 31 31 31 30 30 29 29 28 28 28 27 27 27 26 26 26 25 25 24 24 24 23 23 23 23 23 23 23 23 23 23 23 23 23 23 23 23 24 24 24 24 24 24 24 24 24 24 24 24 24 24 24 24 24 24 23
33 32 32 32 32 32 32 31 31 31 30 30 29 29 29 28 28 28 27 27 27 26 26 26 26 25 24 24 24 23 23 23 23 23 23 23 23 23 23 23 23 23 23 23 23 24 24 24 24 24 24 24 24 24 24 24 24 24 24 24 24 24 23
33 32 31 32 32 32 32 31 31 31 30 29 29 29 29 29 28 28 28 27 27 27 27 26 26 25 24 24 24 24 24 23 23 23 23 23 23 23 24 23 23 23 23 23 23 23 24 24 24 24 24 24 24 24 24 24 24 24 24 24 24 24 24
32 31 31 32 32 32 32 31 30 30 29 29 29 29 29 28 28 28 28 28 27 27 27 26 26 26 25 24 24 24 24 24 24 24 24 24 24 24 24 24 24 23 23 23 23 23 23 24 24 24 24 24 24 24 24 24 24 24 24 24 24 24 24
31 31 31 31 31 31 31 31 30 29 29 29 29 29 29 28 28 28 28 28 28 27 27 27 26 26 25 25 25 25 24 24 24 24 24 24 24 24 24 24 24 23 23 23 23 23 23 23 23 24 24 24 24 24 24 24 24 24 24 24 24 24 24
31 31 30 31 31 31 31 30 30 29 29 29 29 29 29 28 28 28 28 28 28 27 27 27 26 26 25 25 25 25 24 24 24 24 24 24 24 24 24 24 24 24 23 23 23 23 23 23 23 23 24 24 24 24 24 24 24 24 24 24 23 24 24
30 31 31 31 30 30 30 30 29 29 29 29 30 29 29 29 29 28 28 28 28 28 27 27 26 26 25 25 25 25 24 24 24 24 24 24 24 24 24 24 24 24 24 23 23 23 23 23 23 23 24 24 23 23 23 23 23 23 24 24 24 23 24
29 31 31 31 30 30 30 30 29 29 28 29 30 29 29 29 29 28 28 27 28 27 27 27 26 25 25 25 25 25 24 24 24 24 23 23 23 23 23 24 23 23 23 23 23 23 23 23 23 23 23 23 23 23 23 23 23 23 23 23 23 23 23
29 30 32 32 31 30 30 30 29 29 28 29 29 29 29 29 28 28 28 28 27 27 27 26 26 26 25 25 25 24 24 24 24 23 23 23 23 23 23 23 23 23 23 23 23 23 23 23 23 23 23 23 23 23 23 23 23 23 23 23 23 23 23
27 29 30 32 32 31 30 30 29 29 28 28 29 29 29 29 28 28 28 28 28 27 27 26 26 26 25 25 25 24 24 24 24 23 23 23 23 23 23 23 23 23 23 23 23 23 23 23 23 23 23 23 23 23 23 23 23 23 24 24 23 23 23
26 27 28 30 31 31 30 30 29 29 28 29 29 29 29 29 28 29 29 28 28 28 27 27 26 26 26 25 25 24 24 24 24 23 23 23 23 23 23 23 23 23 23 23 23 23 22 23 23 23 23 23 23 23 23 23 23 24 24 24 23 23 23
25 26 27 29 31 31 31 31 30 29 29 30 30 29 29 29 29 29 29 28 28 28 27 27 27 26 25 25 25 24 24 24 24 23 23 23 23 23 23 23 23 23 23 23 23 23 22 23 23 23 23 23 23 23 24 24 23 23 24 24 23 23 23
25 25 27 29 31 31 31 31 30 30 30 30 30 30 29 29 29 29 28 28 28 28 27 27 27 26 25 25 25 24 24 24 24 23 23 23 23 23 23 23 23 23 23 23 23 23 23 23 23 23 23 23 23 23 23 24 23 23 24 24 23 23 23
24 25 26 28 31 31 31 30 30 30 30 30 30 30 29 29 29 28 28 28 28 27 27 26 26 26 25 25 25 24 24 24 24 24 23 23 23 23 23 23 23 23 23 23 23 23 23 23 23 23 23 23 23 23 23 24 24 23 23 24 23 23 23
24 25 25 27 30 30 30 30 30 30 30 30 30 30 29 29 29 29 28 28 28 27 27 26 26 26 25 25 25 25 24 24 24 24 23 23 23 23 23 23 23 23 23 23 24 23 23 23 23 23 23 23 23 23 23 24 23 23 23 23 23 23 23
24 25 25 27 30 30 29 30 30 30 29 29 30 30 29 29 29 29 29 28 28 27 27 26 26 26 25 25 25 25 25 24 24 24 24 23 23 23 23 23 23 23 23 23 24 24 24 23 23 23 23 23 23 23 23 23 23 23 23 23 23 23 23
23 25 25 27 29 30 29 29 29 29 29 29 30 30 29 29 29 29 29 28 28 27 27 27 26 26 26 25 25 25 25 24 24 24 24 24 23 23 23 23 23 23 23 23 24 24 24 24 24 24 24 24 23 23 23 23 23 23 23 23 23 23 23
22 24 25 26 28 29 29 29 29 29 29 29 29 29 29 29 29 28 28 28 28 27 27 27 27 26 26 26 26 25 25 25 24 24 24 24 24 24 24 24 24 24 23 23 24 24 24 24 24 24 24 24 24 24 23 24 24 23 23 23 23 23 23
22 23 24 26 27 28 28 28 28 29 29 29 29 29 28 28 29 28 28 28 28 28 28 27 27 27 26 26 26 25 25 25 25 24 24 24 24 24 24 24 24 24 24 24 24 24 24 24 24 24 24 24 24 24 24 24 24 24 23 23 23 23 23
22 22 24 25 25 26 27 28 28 29 30 29 28 28 28 28 28 28 28 28 28 28 28 27 27 26 26 26 26 26 25 25 25 25 25 24 24 24 24 24 24 24 24 24 24 24 24 24 24 25 25 25 25 24 24 24 24 24 24 23 23 23 23
21 22 23 24 24 24 26 28 28 29 29 28 28 28 28 28 28 28 27 27 28 28 28 27 27 26 26 26 26 26 26 25 25 25 25 25 25 24 24 24 25 24 24 25 25 25 24 24 24 25 25 25 25 25 24 24 24 24 24 24 23 23 23
20 21 22 23 24 24 25 26 26 27 28 28 28 28 28 28 28 27 27 27 27 28 28 27 27 27 26 26 26 26 26 25 25 25 25 25 25 25 25 25 25 24 24 24 25 24 24 24 24 24 25 25 24 24 24 24 24 24 24 24 24 24 23
19 20 21 22 23 23 24 25 25 25 26 27 27 28 28 28 27 27 27 27 27 27 27 27 27 27 26 26 26 26 26 26 25 25 25 25 25 25 25 25 24 24 24 24 24 24 24 24 24 24 24 25 25 25 24 24 24 24 24 24 24 24 24
18 19 20 21 21 22 24 24 24 24 24 25 26 26 27 27 27 27 27 27 27 27 27 27 27 27 26 26 26 26 26 26 26 25 25 25 25 25 25 25 25 24 24 24 24 24 24 25 25 25 25 25 25 25 25 24 24 24 24 24 24 24 24
17 18 19 20 20 21 22 23 24 24 24 24 24 25 26 26 26 26 26 25 26 27 27 27 27 26 26 26 26 26 26 26 26 26 26 25 25 25 25 25 25 25 24 24 24 24 25 25 25 25 25 26 25 25 25 25 24 24 24 24 24 24 24
16 17 18 19 20 20 21 22 23 23 23 23 23 23 24 25 25 25 25 25 26 26 26 26 26 26 26 26 26 26 26 26 26 26 26 26 25 25 25 25 25 25 25 25 25 25 25 25 25 26 26 26 26 25 25 25 24 24 24 24 24 24 24
16 17 17 18 19 20 21 21 22 22 22 22 22 22 23 23 23 24 24 25 25 26 26 26 26 26 26 26 26 26 26 26 26 26 26 26 26 26 26 26 26 26 25 25 25 26 26 26 26 26 26 26 26 25 25 25 25 25 24 24 24 24 24
16 16 17 17 18 19 20 21 21 22 22 22 21 22 22 22 23 23 24 24 25 25 26 25 26 26 26 26 26 26 25 25 26 26 26 26 26 25 25 25 26 26 26 26 25 26 26 26 26 26 26 26 26 25 25 25 25 25 25 25 25 25 25
16 16 16 17 18 18 19 20 21 21 22 21 21 22 22 22 23 23 24 24 25 25 26 26 25 25 25 25 25 25 25 25 25 25 25 25 25 24 23 23 24 25 25 25 25 25 25 25 26 26 25 25 25 25 25 25 25 25 25 25 25 25 25
16 16 16 17 17 17 18 19 20 21 21 21 21 22 22 22 23 23 23 24 25 25 25 25 25 25 25 25 25 24 25 24 24 24 24 23 23 22 21 21 21 22 23 24 24 24 25 25 25 25 25 25 25 25 25 25 24 24 24 24 24 24 24
16 16 16 17 17 17 17 18 18 19 20 20 21 22 22 22 23 23 23 23 24 24 25 25 25 25 25 24 24 23 23 23 23 22 22 22 22 21 21 20 20 20 20 21 22 23 23 24 24 24 24 24 24 24 24 24 24 24 24 24 24 24 24

ECMWFFLT1_925_temp_048.txt.gz
Temp
36 35 35 34 33 32 32 31 31 31 30 30 29 29 29 29 28 28 27 26 26 25 25 24 24 24 24 24 24 24 24 24 24 24 24 25 25 25 25 25 26 26 26 26 26 26 26 25 25 25 25 24 24 24 24 24 24 24 24 24 24 24 24
36 36 35 34 33 32 32 32 31 31 31 30 29 29 29 29 28 28 27 26 26 25 25 24 24 24 24 24 24 24 24 24 24 24 25 25 25 25 25 25 26 25 26 26 27 26 25 25 25 25 25 25 25 25 24 24 24 24 24 24 24 24 24
36 36 36 35 34 33 32 32 32 31 31 30 30 29 29 29 28 28 27 27 26 26 25 25 24 24 24 24 24 24 24 24 24 24 25 25 25 25 25 25 25 26 26 26 26 26 26 25 25 25 25 25 25 25 24 24 24 24 24 24 24 24 24
36 36 36 35 35 33 33 32 32 32 31 31 30 30 29 29 28 28 27 27 26 26 26 25 25 25 25 24 24 24 24 24 24 24 25 25 25 25 25 25 25 26 26 26 26 26 26 26 25 25 25 25 25 25 25 25 24 24 24 24 24 24 24
36 36 36 36 35 34 33 33 33 32 32 32 31 30 29 29 28 28 28 27 27 27 26 26 26 25 25 25 25 25 24 24 24 25 25 25 25 25 25 26 25 26 26 26 26 25 25 26 25 25 25 25 25 25 25 25 25 24 24 24 24 25 25
37 36 36 36 36 35 34 33 34 33 32 32 32 30 30 29 29 29 28 28 28 27 27 26 26 26 25 25 25 25 25 24 24 25 25 25 25 25 25 26 26 26 26 26 26 25 25 25 25 25 25 25 25 25 25 25 25 25 24 24 24 25 25
37 37 37 37 37 36 35 34 34 34 33 33 32 31 31 30 30 30 29 29 28 28 28 27 27 26 26 26 26 25 25 25 25 25 25 25 25 25 25 26 26 26 26 26 26 26 25 25 25 25 25 25 26 26 26 25 25 25 25 24 24 25 25
38 37 37 37 37 37 36 35 35 35 33 33 33 32 31 31 31 30 30 29 29 29 28 28 28 27 26 26 26 26 26 26 25 25 25 25 26 25 25 25 25 26 26 26 26 25 25 25 25 25 25 25 26 26 26 25 25 25 25 25 25 25 25
38 38 37 37 38 38 37 36 35 35 34 33 33 32 32 31 31 31 31 30 30 30 29 29 29 28 27 26 26 26 26 26 26 25 25 26 26 26 26 26 26 25 25 26 26 25 25 25 26 25 25 25 25 25 25 25 25 25 25 25 25 25 25
38 37 37 38 38 38 38 36 35 35 34 33 33 32 32 32 32 31 31 31 31 30 30 30 29 28 27 27 26 26 26 26 26 26 26 26 27 27 27 27 26 26 25 26 26 26 25 25 26 25 25 25 25 25 25 25 25 25 25 25 25 25 25
38 37 36 37 38 38 37 36 35 34 33 33 32 32 32 32 32 32 31 31 31 31 31 30 30 29 28 27 27 27 27 26 27 27 26 27 27 27 27 27 27 26 26 26 27 27 26 25 25 25 25 25 25 25 25 25 25 25 25 25 25 25 25
36 36 35 36 36 36 36 36 34 33 33 33 32 33 32 31 32 32 32 32 31 31 31 30 30 30 29 28 28 28 27 27 27 27 27 27 28 28 28 28 28 27 26 26 26 27 26 26 25 25 25 25 25 25 25 25 25 25 25 25 26 25 25
34 35 34 34 35 35 35 35 34 33 32 33 33 33 32 32 32 32 32 32 32 31 31 30 30 30 29 28 28 28 28 27 27 27 27 27 28 28 28 28 28 28 27 27 27 27 27 26 26 25 25 25 25 25 25 25 25 25 24 25 26 25 25
33 34 34 34 34 34 34 34 33 32 32 33 33 33 32 32 32 32 32 31 31 31 31 31 30 30 29 29 28 28 28 28 28 27 27 27 27 28 28 28 28 28 27 27 27 27 27 27 26 25 25 25 25 25 25 25 25 25 24 25 25 25 25
33 35 35 35 34 33 33 33 33 32 31 32 33 33 33 32 32 32 32 31 31 31 31 31 30 30 29 29 28 28 28 28 28 27 27 27 27 27 27 28 27 27 27 27 27 27 27 27 27 26 25 25 25 25 25 25 25 25 25 25 25 25 26
32 33 34 34 34 34 33 33 32 32 31 32 33 33 33 32 32 32 32 31 31 31 31 31 30 30 29 29 28 28 28 28 27 27 27 27 27 26 27 27 27 27 27 26 26 26 27 27 27 27 26 26 26 26 25 25 25 25 25 25 25 25 26
30 30 31 32 33 33 34 33 33 32 31 31 32 33 33 32 32 32 32 32 31 31 31 31 30 29 29 29 28 28 27 27 27 27 26 26 26 26 26 26 26 26 26 26 26 26 26 26 26 27 27 26 26 26 26 26 26 25 25 25 25 25 25
28 28 29 30 30 31 32 33 34 33 32 32 33 33 33 32 32 32 32 32 31 31 31 31 30 29 29 29 28 28 27 27 27 26 26 26 26 26 25 26 26 26 26 26 26 25 25 26 26 26 27 27 27 27 26 26 26 25 25 25 25 25 25
26 27 28 29 29 30 31 32 34 34 33 33 33 33 33 32 32 32 32 32 31 31 31 31 30 29 29 29 28 27 27 26 26 26 26 26 25 25 25 25 25 26 26 26 26 25 25 25 25 25 26 26 27 27 27 27 26 25 25 25 25 25 25
24 25 26 27 29 30 30 31 33 34 34 34 33 33 33 33 32 32 32 32 31 31 31 31 30 29 28 28 28 27 26 26 26 26 26 25 25 25 25 25 25 25 26 26 26 25 25 25 25 25 25 26 26 26 26 27 26 25 25 25 25 25 24
23 24 24 26 28 29 29 30 31 34 35 34 34 34 33 33 32 32 32 32 31 31 31 30 30 29 28 28 28 27 26 26 26 26 26 25 25 25 25 25 25 25 26 26 26 25 25 25 25 25 25 25 26 26 26 27 26 26 25 25 25 25 24
22 23 23 25 27 28 28 29 31 33 35 34 34 34 33 33 33 32 32 32 31 31 30 30 29 29 28 28 27 27 27 26 26 26 26 25 25 25 25 25 25 25 25 26 26 26 26 25 26 26 25 25 26 26 26 26 26 26 25 25 25 24 24
21 21 23 25 27 28 29 30 31 33 34 34 34 34 34 33 33 33 33 32 31 31 30 30 29 29 28 28 28 27 27 27 26 26 26 26 25 25 25 25 25 25 25 26 26 27 26 26 26 26 26 26 26 26 26 26 26 26 25 25 24 24 24
20 21 23 26 28 29 30 31 32 33 34 34 34 34 34 33 33 32 32 32 32 31 30 30 29 29 28 28 28 28 27 27 27 26 26 26 26 26 26 26 25 25 25 26 26 27 27 27 27 27 27 26 26 26 26 26 26 26 25 25 24 24 23
19 21 24 27 29 29 30 31 32 33 33 33 33 34 33 33 32 32 32 32 31 31 30 30 29 29 28 28 28 28 27 27 27 26 26 26 26 26 26 26 26 26 26 26 26 27 27 27 27 27 27 27 27 26 26 26 27 26 25 25 25 24 24
18 20 24 26 28 28 29 30 31 33 33 33 33 33 33 32 32 32 31 31 31 31 30 30 29 29 29 28 28 28 27 27 27 27 26 26 26 26 26 26 26 26 26 26 27 27 27 28 28 28 28 27 27 27 26 26 27 26 26 25 25 25 24
18 20 23 25 27 27 28 30 31 32 33 33 33 33 32 32 32 32 31 31 31 31 31 30 30 29 29 29 29 28 28 27 27 27 27 26 26 26 27 27 27 27 27 27 27 27 27 28 28 28 28 28 28 28 27 27 27 26 26 25 25 25 24
18 20 21 23 25 27 29 31 31 32 33 33 32 32 32 32 32 31 30 31 31 31 31 30 30 29 29 28 29 28 28 27 27 27 27 27 26 26 27 27 27 27 27 27 28 28 27 27 28 28 28 28 28 28 28 27 27 26 26 26 25 25 24
17 18 20 22 24 26 28 30 30 31 33 32 32 32 32 32 31 30 30 30 31 31 31 30 29 29 28 28 28 28 28 27 27 27 27 27 27 27 27 27 27 27 27 27 27 27 27 27 27 27 28 28 28 28 28 27 27 26 26 26 25 25 24
17 18 19 20 23 24 27 28 29 30 32 32 32 32 32 31 30 30 30 30 30 30 31 30 29 29 28 28 28 28 28 28 27 27 27 27 27 27 27 27 27 27 27 27 27 27 27 27 27 27 27 28 28 28 28 27 27 26 26 26 25 25 25
16 17 18 19 21 22 26 28 28 29 31 31 31 31 31 31 30 29 29 30 30 30 30 29 29 28 28 28 28 28 28 28 27 27 27 27 27 27 27 27 27 27 27 26 27 27 27 27 27 27 27 28 28 28 28 28 27 27 26 25 25 25 25
16 17 17 18 19 21 24 27 28 28 29 29 30 30 30 30 30 29 29 29 29 29 30 29 28 28 28 28 28 28 28 28 28 27 27 27 27 27 27 27 27 27 27 27 27 27 27 27 28 28 28 28 28 28 28 28 28 27 26 25 25 25 25
16 16 16 17 18 19 22 25 27 28 27 28 28 29 29 29 29 29 29 28 29 29 29 28 28 28 28 28 28 28 28 28 28 28 27 27 27 27 27 27 27 27 27 27 27 27 27 28 28 28 28 29 29 29 28 28 28 28 27 26 25 24 24
16 16 16 16 17 19 20 23 24 26 26 27 27 27 27 28 28 28 28 28 28 28 28 28 28 28 28 28 28 28 28 28 28 28 28 28 28 28 28 28 28 28 28 27 28 28 28 28 28 28 29 29 29 29 29 29 28 28 27 27 26 25 24
15 15 16 16 17 18 20 21 22 24 25 25 26 26 26 26 27 27 27 27 28 28 28 28 28 28 28 29 29 29 29 28 28 28 29 29 28 28 28 28 28 28 28 28 28 28 28 28 28 29 29 29 29 29 29 28 28 28 28 28 27 26 25
15 15 16 16 16 17 19 20 21 22 24 24 25 26 26 26 26 26 27 27 27 27 28 28 28 28 29 29 29 29 29 29 29 29 29 29 29 27 25 26 26 27 27 27 27 28 28 28 28 28 29 29 28 28 28 28 27 27 27 27 27 26 25
15 15 16 16 16 16 18 20 21 22 23 24 24 25 25 25 26 26 26 26 26 27 27 28 28 28 29 29 29 29 29 29 30 29 29 29 29 26 25 24 24 25 26 26 26 26 27 27 27 28 28 28 27 27 27 27 27 27 27 26 26 25 24
15 16 16 16 16 16 17 19 21 22 22 23 24 24 25 25 25 25 25 25 26 26 27 27 28 29 29 29 28 27 28 29 29 29 28 28 28 26 25 25 24 23 22 23 24 25 25 26 26 27 27 27 26 26 26 26 26 26 25 25 25 24 24